Observation data for McCamey on 12/09/2018      Previous  Date       Current Mesonet Observations  Soil Data  Daily Summary Page  Observations in Plain Language
KMC4 090600Z 00001KT 02/01 A3033 RMK A01 T00170008  RH  093%=      5-min Rain = 0
KMC4 090601Z 00001KT 02/01 A3033 RMK A01 T00180008  RH  093%=      5-min Rain = 0
KMC4 090602Z 00000KT 02/01 A3033 RMK A01 T00180007  RH  093%=      5-min Rain = 0
KMC4 090603Z 00000KT 02/01 A3033 RMK A01 T00170007  RH  093%=      5-min Rain = 0
KMC4 090604Z 00000KT 02/01 A3033 RMK A01 T00170006  RH  093%=      5-min Rain = 0
KMC4 090605Z 00000KT 02/01 A3033 RMK A01 T00160005  RH  093%=      5-min Rain = 0
KMC4 090606Z 00000KT 02/01 A3033 RMK A01 T00160005  RH  093%=      5-min Rain = 0
KMC4 090607Z 00000KT 02/00 A3033 RMK A01 T00150004  RH  093%=      5-min Rain = 0
KMC4 090608Z 00000KT 02/00 A3033 RMK A01 T00150004  RH  093%=      5-min Rain = 0
KMC4 090609Z 00000KT 02/00 A3033 RMK A01 T00150004  RH  093%=      5-min Rain = 0
KMC4 090610Z 00000KT 01/00 A3033 RMK A01 T00140004  RH  093%=      5-min Rain = 0
KMC4 090611Z 00000KT 02/01 A3033 RMK A01 T00150005  RH  093%=      5-min Rain = 0
KMC4 090612Z 00000KT 02/01 A3033 RMK A01 T00150005  RH  093%=      5-min Rain = 0
KMC4 090613Z 00000KT 02/01 A3033 RMK A01 T00150005  RH  093%=      5-min Rain = 0
KMC4 090614Z 00000KT 01/01 A3033 RMK A01 T00140005  RH  093%=      5-min Rain = 0
KMC4 090615Z 00000KT 01/01 A3033 RMK A01 T00140005  RH  093%=      5-min Rain = 0
KMC4 090616Z 00000KT 02/01 A3033 RMK A01 T00150005  RH  093%=      5-min Rain = 0
KMC4 090617Z 00000KT 02/01 A3033 RMK A01 T00150005  RH  093%=      5-min Rain = 0
KMC4 090618Z 00000KT 02/01 A3033 RMK A01 T00150005  RH  093%=      5-min Rain = 0
KMC4 090619Z 00000KT 02/01 A3033 RMK A01 T00150005  RH  093%=      5-min Rain = 0
KMC4 090620Z 00000KT 02/01 A3033 RMK A01 T00150005  RH  093%=      5-min Rain = 0
KMC4 090621Z 00000KT 02/00 A3033 RMK A01 T00150004  RH  093%=      5-min Rain = 0
KMC4 090622Z 00000KT 02/00 A3033 RMK A01 T00150004  RH  093%=      5-min Rain = 0
KMC4 090623Z 00000KT 01/00 A3033 RMK A01 T00140003  RH  092%=      5-min Rain = 0
KMC4 090624Z 00000KT 01/00 A3033 RMK A01 T00130002  RH  092%=      5-min Rain = 0
KMC4 090625Z 00000KT 01/00 A3033 RMK A01 T00130002  RH  093%=      5-min Rain = 0
KMC4 090626Z 00000KT 01/00 A3033 RMK A01 T00130002  RH  093%=      5-min Rain = 0
KMC4 090627Z 00001KT 01/00 A3033 RMK A01 T00120002  RH  093%=      5-min Rain = 0
KMC4 090628Z 00001KT 01/00 A3033 RMK A01 T00110001  RH  093%=      5-min Rain = 0
KMC4 090629Z 00001KT 01/00 A3033 RMK A01 T00100000  RH  093%=      5-min Rain = 0
KMC4 090630Z 00001KT 01/00 A3033 RMK A01 T00100000  RH  093%=      5-min Rain = 0
KMC4 090631Z 00001KT 01/00 A3033 RMK A01 T000900-0  RH  094%=      5-min Rain = 0
KMC4 090632Z 00000KT 01/00 A3033 RMK A01 T000900-0  RH  094%=      5-min Rain = 0
KMC4 090633Z 00000KT 01/00 A3033 RMK A01 T000800-0  RH  094%=      5-min Rain = 0
KMC4 090634Z 00000KT 01/00 A3033 RMK A01 T00080000  RH  094%=      5-min Rain = 0
KMC4 090635Z 01001KT 01/00 A3033 RMK A01 T00080001  RH  095%=      5-min Rain = 0
KMC4 090636Z 02001KT 01/00 A3033 RMK A01 T00090001  RH  095%=      5-min Rain = 0
KMC4 090637Z 02001KT 01/00 A3033 RMK A01 T00090002  RH  095%=      5-min Rain = 0
KMC4 090638Z 02001KT 01/00 A3033 RMK A01 T00090002  RH  095%=      5-min Rain = 0
KMC4 090639Z 02001KT 01/00 A3033 RMK A01 T00100002  RH  095%=      5-min Rain = 0
KMC4 090640Z 02001KT 01/00 A3033 RMK A01 T00100003  RH  095%=      5-min Rain = 0
KMC4 090641Z 02001KT 01/00 A3033 RMK A01 T00100003  RH  095%=      5-min Rain = 0
KMC4 090642Z 02001KT 01/00 A3033 RMK A01 T00100003  RH  095%=      5-min Rain = 0
KMC4 090643Z 02001KT 01/00 A3033 RMK A01 T00110003  RH  095%=      5-min Rain = 0
KMC4 090644Z 02001KT 01/00 A3033 RMK A01 T00110003  RH  095%=      5-min Rain = 0
KMC4 090645Z 02001KT 01/00 A3033 RMK A01 T00110003  RH  095%=      5-min Rain = 0
KMC4 090646Z 02001KT 01/00 A3033 RMK A01 T00100003  RH  095%=      5-min Rain = 0
KMC4 090647Z 02001KT 01/00 A3033 RMK A01 T00110003  RH  095%=      5-min Rain = 0
KMC4 090648Z 02001KT 01/00 A3033 RMK A01 T00100003  RH  095%=      5-min Rain = 0
KMC4 090649Z 02002KT 01/00 A3033 RMK A01 T00100002  RH  094%=      5-min Rain = 0
KMC4 090650Z 02002KT 01/00 A3033 RMK A01 T00100002  RH  094%=      5-min Rain = 0
KMC4 090651Z 02002KT 01/00 A3033 RMK A01 T00100002  RH  094%=      5-min Rain = 0
KMC4 090652Z 02002KT 01/00 A3032 RMK A01 T00100001  RH  094%=      5-min Rain = 0
KMC4 090653Z 02002KT 01/00 A3032 RMK A01 T00090001  RH  094%=      5-min Rain = 0
KMC4 090654Z 02002KT 01/00 A3032 RMK A01 T00090000  RH  094%=      5-min Rain = 0
KMC4 090655Z 02003KT 01/00 A3032 RMK A01 T00090000  RH  094%=      5-min Rain = 0
KMC4 090656Z 02003KT 01/00 A3032 RMK A01 T00080000  RH  094%=      5-min Rain = 0
KMC4 090657Z 02004KT 01/00 A3032 RMK A01 T00080000  RH  094%=      5-min Rain = 0
KMC4 090658Z 02004KT 01/00 A3032 RMK A01 T00080000  RH  094%=      5-min Rain = 0
KMC4 090659Z 02004KT 01/00 A3032 RMK A01 T00080000  RH  094%=      5-min Rain = 0
KMC4 090700Z 02004KT 01/00 A3032 RMK A01 T00080000  RH  095%=      5-min Rain = 0
KMC4 090701Z 02004KT 01/00 A3032 RMK A01 T00080001  RH  095%=      5-min Rain = 0
KMC4 090702Z 03004KT 01/00 A3032 RMK A01 T00090001  RH  094%=      5-min Rain = 0
KMC4 090703Z 03003KT 01/00 A3032 RMK A01 T00090001  RH  094%=      5-min Rain = 0
KMC4 090704Z 03003KT 01/00 A3032 RMK A01 T00090000  RH  094%=      5-min Rain = 0
KMC4 090705Z 03003KT 01/00 A3032 RMK A01 T00090000  RH  094%=      5-min Rain = 0
KMC4 090706Z 03003KT 01/00 A3032 RMK A01 T00090000  RH  094%=      5-min Rain = 0
KMC4 090707Z 03004KT 01/00 A3032 RMK A01 T000900-0  RH  094%=      5-min Rain = 0
KMC4 090708Z 04003KT 01/00 A3032 RMK A01 T000900-0  RH  094%=      5-min Rain = 0
KMC4 090709Z 04003KT 01/00 A3032 RMK A01 T000900-0  RH  093%=      5-min Rain = 0
KMC4 090710Z 04002KT 01/M00 A3032 RMK A01 T00091001  RH  093%=      5-min Rain = 0
KMC4 090711Z 04002KT 01/M00 A3032 RMK A01 T00081002  RH  093%=      5-min Rain = 0
KMC4 090712Z 05001KT 01/M00 A3032 RMK A01 T00081002  RH  093%=      5-min Rain = 0
KMC4 090713Z 06001KT 01/M00 A3032 RMK A01 T00061003  RH  093%=      5-min Rain = 0
KMC4 090714Z 06001KT 01/M00 A3032 RMK A01 T00061004  RH  093%=      5-min Rain = 0
KMC4 090715Z 07001KT 01/M01 A3032 RMK A01 T00051005  RH  093%=      5-min Rain = 0
KMC4 090716Z 08001KT 00/M01 A3031 RMK A01 T00041006  RH  093%=      5-min Rain = 0
KMC4 090717Z 08001KT 00/M01 A3031 RMK A01 T00021007  RH  093%=      5-min Rain = 0
KMC4 090718Z 08001KT 00/M01 A3031 RMK A01 T00011009  RH  093%=      5-min Rain = 0
KMC4 090719Z 13002KT 00/01 A3031 RMK A01 T00-00-10  RH  093%=      5-min Rain = 0
KMC4 090720Z 13002KT M00/M01 A3031 RMK A01 T10011011  RH  093%=      5-min Rain = 0
KMC4 090721Z 13001KT M00/M01 A3031 RMK A01 T10021011  RH  094%=      5-min Rain = 0
KMC4 090722Z 11001KT M00/M01 A3031 RMK A01 T10031012  RH  094%=      5-min Rain = 0
KMC4 090723Z 11002KT M00/M01 A3031 RMK A01 T10041012  RH  094%=      5-min Rain = 0
KMC4 090724Z 11001KT M01/M01 A3031 RMK A01 T10051013  RH  094%=      5-min Rain = 0
KMC4 090725Z 11001KT M01/M01 A3031 RMK A01 T10051012  RH  094%=      5-min Rain = 0
KMC4 090726Z 11001KT M01/M01 A3031 RMK A01 T10051013  RH  095%=      5-min Rain = 0
KMC4 090727Z 11000KT M01/M01 A3031 RMK A01 T10051013  RH  095%=      5-min Rain = 0
KMC4 090728Z 00000KT M01/M01 A3031 RMK A01 T10051012  RH  095%=      5-min Rain = 0
KMC4 090729Z 00000KT M01/M01 A3031 RMK A01 T10051012  RH  095%=      5-min Rain = 0
KMC4 090730Z 00000KT M01/M01 A3031 RMK A01 T10051012  RH  095%=      5-min Rain = 0
KMC4 090731Z 11000KT M01/M01 A3031 RMK A01 T10051012  RH  095%=      5-min Rain = 0
KMC4 090732Z 13002KT M01/M01 A3031 RMK A01 T10051011  RH  096%=      5-min Rain = 0
KMC4 090733Z 13002KT M01/M01 A3031 RMK A01 T10051011  RH  096%=      5-min Rain = 0
KMC4 090734Z 12002KT M01/M01 A3031 RMK A01 T10051010  RH  096%=      5-min Rain = 0
KMC4 090735Z 11001KT M00/M01 A3031 RMK A01 T10041010  RH  096%=      5-min Rain = 0
KMC4 090736Z 11001KT M00/M01 A3031 RMK A01 T10041010  RH  096%=      5-min Rain = 0
KMC4 090737Z 09002KT M00/M01 A3031 RMK A01 T10041009  RH  096%=      5-min Rain = 0
KMC4 090738Z 09002KT M00/M01 A3031 RMK A01 T10031009  RH  096%=      5-min Rain = 0
KMC4 090739Z 09001KT M00/M01 A3031 RMK A01 T10031008  RH  097%=      5-min Rain = 0
KMC4 090740Z 09001KT M00/M01 A3031 RMK A01 T10021007  RH  097%=      5-min Rain = 0
KMC4 090741Z 08002KT M00/M01 A3031 RMK A01 T10021007  RH  097%=      5-min Rain = 0
KMC4 090742Z 08002KT M00/M01 A3031 RMK A01 T10021006  RH  097%=      5-min Rain = 0
KMC4 090743Z 08002KT M00/M01 A3031 RMK A01 T10011006  RH  097%=      5-min Rain = 0
KMC4 090744Z 07002KT M00/M01 A3031 RMK A01 T10011005  RH  097%=      5-min Rain = 0
KMC4 090745Z 07002KT 00/01 A303 RMK A01 T00-000-5  RH  097%=      5-min Rain = 0
KMC4 090746Z 07002KT 00/00 A303 RMK A01 T00-000-4  RH  097%=      5-min Rain = 0
KMC4 090747Z 09002KT 00/00 A303 RMK A01 T00-000-4  RH  097%=      5-min Rain = 0
KMC4 090748Z 09002KT 00/00 A303 RMK A01 T000000-4  RH  097%=      5-min Rain = 0
KMC4 090749Z 09002KT 00/M00 A303 RMK A01 T00011004  RH  097%=      5-min Rain = 0
KMC4 090750Z 09002KT 00/M00 A303 RMK A01 T00011003  RH  097%=      5-min Rain = 0
KMC4 090751Z 08002KT 00/M00 A303 RMK A01 T00011003  RH  097%=      5-min Rain = 0
KMC4 090752Z 08002KT 00/M00 A303 RMK A01 T00011003  RH  097%=      5-min Rain = 0
KMC4 090753Z 08002KT 00/M00 A3031 RMK A01 T00011003  RH  097%=      5-min Rain = 0
KMC4 090754Z 08002KT 00/M00 A3031 RMK A01 T00021002  RH  097%=      5-min Rain = 0
KMC4 090755Z 08002KT 00/M00 A3031 RMK A01 T00021002  RH  097%=      5-min Rain = 0
KMC4 090756Z 08002KT 00/M00 A3031 RMK A01 T00021002  RH  097%=      5-min Rain = 0
KMC4 090757Z 08002KT 00/M00 A3031 RMK A01 T00021002  RH  097%=      5-min Rain = 0
KMC4 090758Z 08002KT 00/M00 A3031 RMK A01 T00021002  RH  097%=      5-min Rain = 0
KMC4 090759Z 08002KT 00/M00 A3031 RMK A01 T00021002  RH  097%=      5-min Rain = 0
KMC4 090800Z 08002KT 00/M00 A3031 RMK A01 T00021002  RH  097%=      5-min Rain = 0
KMC4 090801Z 08002KT 00/M00 A3031 RMK A01 T00031002  RH  097%=      5-min Rain = 0
KMC4 090802Z 08002KT 00/M00 A3031 RMK A01 T00031002  RH  097%=      5-min Rain = 0
KMC4 090803Z 07002KT 00/M00 A3031 RMK A01 T00031002  RH  097%=      5-min Rain = 0
KMC4 090804Z 07001KT 00/M00 A3031 RMK A01 T00031002  RH  097%=      5-min Rain = 0
KMC4 090805Z 07001KT 00/M00 A3031 RMK A01 T00031002  RH  097%=      5-min Rain = 0
KMC4 090806Z 07001KT 00/M00 A3031 RMK A01 T00031002  RH  097%=      5-min Rain = 0
KMC4 090807Z 07001KT 00/M00 A3031 RMK A01 T00031002  RH  097%=      5-min Rain = 0
KMC4 090808Z 07002KT 00/M00 A3031 RMK A01 T00041001  RH  097%=      5-min Rain = 0
KMC4 090809Z 06002KT 00/M00 A3031 RMK A01 T00041002  RH  096%=      5-min Rain = 0
KMC4 090810Z 06002KT 00/M00 A3031 RMK A01 T00041002  RH  096%=      5-min Rain = 0
KMC4 090811Z 07002KT 00/M00 A3031 RMK A01 T00041002  RH  096%=      5-min Rain = 0
KMC4 090812Z 06002KT 00/M00 A3031 RMK A01 T00041001  RH  096%=      5-min Rain = 0
KMC4 090813Z 06002KT 00/M00 A3031 RMK A01 T00031002  RH  096%=      5-min Rain = 0
KMC4 090814Z 05002KT 00/M00 A303 RMK A01 T00031002  RH  096%=      5-min Rain = 0
KMC4 090815Z 05002KT 00/M00 A303 RMK A01 T00031002  RH  096%=      5-min Rain = 0
KMC4 090816Z 05002KT 00/M00 A303 RMK A01 T00031003  RH  096%=      5-min Rain = 0
KMC4 090817Z 07002KT 00/M00 A303 RMK A01 T00031003  RH  096%=      5-min Rain = 0
KMC4 090818Z 07002KT 00/M00 A303 RMK A01 T00031003  RH  096%=      5-min Rain = 0
KMC4 090819Z 07002KT 00/M00 A303 RMK A01 T00031003  RH  096%=      5-min Rain = 0
KMC4 090820Z 07001KT 00/M00 A3031 RMK A01 T00031003  RH  096%=      5-min Rain = 0
KMC4 090821Z 07002KT 00/M00 A3031 RMK A01 T00021003  RH  096%=      5-min Rain = 0
KMC4 090822Z 07001KT 00/M00 A3031 RMK A01 T00021004  RH  096%=      5-min Rain = 0
KMC4 090823Z 06001KT 00/M00 A3031 RMK A01 T00021004  RH  096%=      5-min Rain = 0
KMC4 090824Z 05001KT 00/M00 A3031 RMK A01 T00021004  RH  096%=      5-min Rain = 0
KMC4 090825Z 05001KT 00/M00 A3031 RMK A01 T00021004  RH  096%=      5-min Rain = 0
KMC4 090826Z 05001KT 00/M00 A3031 RMK A01 T00021004  RH  096%=      5-min Rain = 0
KMC4 090827Z 05002KT 00/M00 A3031 RMK A01 T00021003  RH  096%=      5-min Rain = 0
KMC4 090828Z 05001KT 00/M00 A3031 RMK A01 T00031003  RH  096%=      5-min Rain = 0
KMC4 090829Z 05002KT 00/M00 A3031 RMK A01 T00031003  RH  096%=      5-min Rain = 0
KMC4 090830Z 05002KT 00/M00 A3031 RMK A01 T00031003  RH  096%=      5-min Rain = 0
KMC4 090831Z 04002KT 00/M00 A3031 RMK A01 T00031003  RH  096%=      5-min Rain = 0
KMC4 090832Z 04002KT 00/M00 A3031 RMK A01 T00031003  RH  096%=      5-min Rain = 0
KMC4 090833Z 04002KT 00/M00 A3031 RMK A01 T00031003  RH  096%=      5-min Rain = 0
KMC4 090834Z 04002KT 00/M00 A3031 RMK A01 T00031003  RH  096%=      5-min Rain = 0
KMC4 090835Z 04002KT 00/M00 A3031 RMK A01 T00031004  RH  096%=      5-min Rain = 0
KMC4 090836Z 04002KT 00/M00 A3031 RMK A01 T00021004  RH  096%=      5-min Rain = 0
KMC4 090837Z 04001KT 00/M00 A303 RMK A01 T00021004  RH  096%=      5-min Rain = 0
KMC4 090838Z 04002KT 00/M00 A303 RMK A01 T00021004  RH  096%=      5-min Rain = 0
KMC4 090839Z 04002KT 00/M01 A303 RMK A01 T00021005  RH  096%=      5-min Rain = 0
KMC4 090840Z 04002KT 00/M01 A303 RMK A01 T00011005  RH  096%=      5-min Rain = 0
KMC4 090841Z 04002KT 00/M01 A303 RMK A01 T00011005  RH  096%=      5-min Rain = 0
KMC4 090842Z 04002KT 00/M01 A303 RMK A01 T00011005  RH  096%=      5-min Rain = 0
KMC4 090843Z 03002KT 00/M01 A303 RMK A01 T00011005  RH  096%=      5-min Rain = 0
KMC4 090844Z 03002KT 00/M01 A303 RMK A01 T00011005  RH  096%=      5-min Rain = 0
KMC4 090845Z 03002KT 00/M01 A303 RMK A01 T00011005  RH  096%=      5-min Rain = 0
KMC4 090846Z 03002KT 00/M01 A303 RMK A01 T00011005  RH  096%=      5-min Rain = 0
KMC4 090847Z 04001KT 00/01 A303 RMK A01 T000000-5  RH  096%=      5-min Rain = 0
KMC4 090848Z 04001KT 00/01 A303 RMK A01 T000000-5  RH  096%=      5-min Rain = 0
KMC4 090849Z 04001KT 00/M01 A303 RMK A01 T00011005  RH  096%=      5-min Rain = 0
KMC4 090850Z 04001KT 00/01 A303 RMK A01 T000000-5  RH  096%=      5-min Rain = 0
KMC4 090851Z 04001KT 00/M01 A303 RMK A01 T00011005  RH  096%=      5-min Rain = 0
KMC4 090852Z 04001KT 00/01 A303 RMK A01 T000000-5  RH  096%=      5-min Rain = 0
KMC4 090853Z 04001KT 00/01 A303 RMK A01 T000000-5  RH  096%=      5-min Rain = 0
KMC4 090854Z 04001KT 00/01 A303 RMK A01 T000000-5  RH  096%=      5-min Rain = 0
KMC4 090855Z 04001KT 00/01 A303 RMK A01 T000000-5  RH  096%=      5-min Rain = 0
KMC4 090856Z 04001KT 00/01 A303 RMK A01 T000000-5  RH  096%=      5-min Rain = 0
KMC4 090857Z 04001KT 00/01 A303 RMK A01 T00-000-5  RH  096%=      5-min Rain = 0
KMC4 090858Z 04001KT 00/01 A303 RMK A01 T00-000-5  RH  096%=      5-min Rain = 0
KMC4 090859Z 04001KT 00/01 A303 RMK A01 T00-000-5  RH  096%=      5-min Rain = 0
KMC4 090900Z 04000KT 00/01 A303 RMK A01 T000000-5  RH  096%=      5-min Rain = 0
KMC4 090901Z 00000KT 00/01 A303 RMK A01 T00-000-5  RH  096%=      5-min Rain = 0
KMC4 090902Z 00000KT M00/M01 A303 RMK A01 T10011006  RH  096%=      5-min Rain = 0
KMC4 090903Z 00000KT M00/M01 A303 RMK A01 T10011006  RH  096%=      5-min Rain = 0
KMC4 090904Z 00000KT M00/M01 A303 RMK A01 T10011007  RH  096%=      5-min Rain = 0
KMC4 090905Z 00000KT M00/M01 A303 RMK A01 T10021007  RH  096%=      5-min Rain = 0
KMC4 090906Z 00000KT M00/M01 A303 RMK A01 T10021008  RH  096%=      5-min Rain = 0
KMC4 090907Z 00000KT M00/M01 A303 RMK A01 T10031008  RH  096%=      5-min Rain = 0
KMC4 090908Z 00000KT M00/M01 A303 RMK A01 T10031009  RH  096%=      5-min Rain = 0
KMC4 090909Z 04001KT M00/M01 A3031 RMK A01 T10031009  RH  096%=      5-min Rain = 0
KMC4 090910Z 03001KT M00/M01 A3031 RMK A01 T10031008  RH  096%=      5-min Rain = 0
KMC4 090911Z 03001KT M00/M01 A303 RMK A01 T10031008  RH  096%=      5-min Rain = 0
KMC4 090912Z 04001KT M00/M01 A303 RMK A01 T10031008  RH  097%=      5-min Rain = 0
KMC4 090913Z 04000KT M00/M01 A303 RMK A01 T10031008  RH  097%=      5-min Rain = 0
KMC4 090914Z 04001KT M00/M01 A303 RMK A01 T10021007  RH  097%=      5-min Rain = 0
KMC4 090915Z 04001KT M00/M01 A303 RMK A01 T10021007  RH  097%=      5-min Rain = 0
KMC4 090916Z 04000KT M00/M01 A303 RMK A01 T10021007  RH  097%=      5-min Rain = 0
KMC4 090917Z 04000KT M00/M01 A303 RMK A01 T10021007  RH  097%=      5-min Rain = 0
KMC4 090918Z 00000KT M00/M01 A303 RMK A01 T10021007  RH  097%=      5-min Rain = 0
KMC4 090919Z 00000KT M00/M01 A303 RMK A01 T10021007  RH  097%=      5-min Rain = 0
KMC4 090920Z 00000KT M00/M01 A303 RMK A01 T10021007  RH  097%=      5-min Rain = 0
KMC4 090921Z 00000KT M00/M01 A303 RMK A01 T10031008  RH  097%=      5-min Rain = 0
KMC4 090922Z 00000KT M00/M01 A303 RMK A01 T10031008  RH  097%=      5-min Rain = 0
KMC4 090923Z 00000KT M00/M01 A303 RMK A01 T10031007  RH  097%=      5-min Rain = 0
KMC4 090924Z 00000KT M00/M01 A303 RMK A01 T10031008  RH  097%=      5-min Rain = 0
KMC4 090925Z 11001KT M00/M01 A303 RMK A01 T10041008  RH  097%=      5-min Rain = 0
KMC4 090926Z 10000KT M00/M01 A303 RMK A01 T10041009  RH  097%=      5-min Rain = 0
KMC4 090927Z 10001KT M01/M01 A303 RMK A01 T10051010  RH  097%=      5-min Rain = 0
KMC4 090928Z 10001KT M00/M01 A303 RMK A01 T10041009  RH  097%=      5-min Rain = 0
KMC4 090929Z 10001KT M00/M01 A303 RMK A01 T10041009  RH  097%=      5-min Rain = 0
KMC4 090930Z 10001KT M00/M01 A303 RMK A01 T10041009  RH  097%=      5-min Rain = 0
KMC4 090931Z 10001KT M01/M01 A303 RMK A01 T10051009  RH  097%=      5-min Rain = 0
KMC4 090932Z 09001KT M01/M01 A303 RMK A01 T10051009  RH  097%=      5-min Rain = 0
KMC4 090933Z 08001KT M01/M01 A303 RMK A01 T10051009  RH  097%=      5-min Rain = 0
KMC4 090934Z 08001KT M00/M01 A3031 RMK A01 T10041009  RH  097%=      5-min Rain = 0
KMC4 090935Z 08001KT M00/M01 A3031 RMK A01 T10041008  RH  097%=      5-min Rain = 0
KMC4 090936Z 08002KT M00/M01 A3031 RMK A01 T10041008  RH  097%=      5-min Rain = 0
KMC4 090937Z 08002KT M00/M01 A3031 RMK A01 T10031007  RH  097%=      5-min Rain = 0
KMC4 090938Z 08002KT M00/M01 A303 RMK A01 T10031007  RH  097%=      5-min Rain = 0
KMC4 090939Z 08002KT M00/M01 A303 RMK A01 T10031007  RH  097%=      5-min Rain = 0
KMC4 090940Z 08002KT M00/M01 A303 RMK A01 T10031007  RH  097%=      5-min Rain = 0
KMC4 090941Z 09002KT M00/M01 A303 RMK A01 T10031007  RH  097%=      5-min Rain = 0
KMC4 090942Z 10002KT M00/M01 A303 RMK A01 T10031007  RH  097%=      5-min Rain = 0
KMC4 090943Z 09002KT M00/M01 A3031 RMK A01 T10031007  RH  097%=      5-min Rain = 0
KMC4 090944Z 10002KT M00/M01 A3031 RMK A01 T10031007  RH  097%=      5-min Rain = 0
KMC4 090945Z 10002KT M00/M01 A3031 RMK A01 T10031007  RH  097%=      5-min Rain = 0
KMC4 090946Z 10002KT M00/M01 A3031 RMK A01 T10031007  RH  097%=      5-min Rain = 0
KMC4 090947Z 10002KT M00/M01 A3031 RMK A01 T10031007  RH  097%=      5-min Rain = 0
KMC4 090948Z 09001KT M00/M01 A3031 RMK A01 T10021006  RH  097%=      5-min Rain = 0
KMC4 090949Z 09002KT M00/M01 A3031 RMK A01 T10021007  RH  097%=      5-min Rain = 0
KMC4 090950Z 10002KT M00/M01 A3031 RMK A01 T10021006  RH  097%=      5-min Rain = 0
KMC4 090951Z 10002KT M00/M01 A3031 RMK A01 T10021006  RH  097%=      5-min Rain = 0
KMC4 090952Z 11002KT M00/M01 A3031 RMK A01 T10021006  RH  097%=      5-min Rain = 0
KMC4 090953Z 10002KT M00/M01 A3031 RMK A01 T10021006  RH  097%=      5-min Rain = 0
KMC4 090954Z 10002KT M00/M01 A3031 RMK A01 T10021006  RH  097%=      5-min Rain = 0
KMC4 090955Z 11002KT M00/M01 A3031 RMK A01 T10021007  RH  097%=      5-min Rain = 0
KMC4 090956Z 10002KT M00/M01 A3031 RMK A01 T10021007  RH  097%=      5-min Rain = 0
KMC4 090957Z 10002KT M00/M01 A3031 RMK A01 T10021007  RH  097%=      5-min Rain = 0
KMC4 090958Z 10002KT M00/M01 A3031 RMK A01 T10021007  RH  097%=      5-min Rain = 0
KMC4 090959Z 09002KT M00/M01 A3031 RMK A01 T10021007  RH  097%=      5-min Rain = 0
KMC4 091000Z 09002KT M00/M01 A3031 RMK A01 T10021007  RH  097%=      5-min Rain = 0
KMC4 091001Z 08002KT M00/M01 A3031 RMK A01 T10021006  RH  097%=      5-min Rain = 0
KMC4 091002Z 08002KT M00/M01 A3031 RMK A01 T10021007  RH  097%=      5-min Rain = 0
KMC4 091003Z 08002KT M00/M01 A303 RMK A01 T10021007  RH  097%=      5-min Rain = 0
KMC4 091004Z 08002KT M00/M01 A303 RMK A01 T10021007  RH  097%=      5-min Rain = 0
KMC4 091005Z 09002KT M00/M01 A303 RMK A01 T10021007  RH  097%=      5-min Rain = 0
KMC4 091006Z 09002KT M00/M01 A303 RMK A01 T10021007  RH  097%=      5-min Rain = 0
KMC4 091007Z 08002KT M00/M01 A303 RMK A01 T10021007  RH  097%=      5-min Rain = 0
KMC4 091008Z 08002KT M00/M01 A303 RMK A01 T10021007  RH  097%=      5-min Rain = 0
KMC4 091009Z 08002KT M00/M01 A303 RMK A01 T10021007  RH  097%=      5-min Rain = 0
KMC4 091010Z 08002KT M00/M01 A303 RMK A01 T10021007  RH  097%=      5-min Rain = 0
KMC4 091011Z 08003KT M00/M01 A303 RMK A01 T10021007  RH  097%=      5-min Rain = 0
KMC4 091012Z 07003KT M00/M01 A303 RMK A01 T10021007  RH  097%=      5-min Rain = 0
KMC4 091013Z 07003KT M00/M01 A303 RMK A01 T10021006  RH  097%=      5-min Rain = 0
KMC4 091014Z 08003KT M00/M01 A303 RMK A01 T10021007  RH  097%=      5-min Rain = 0
KMC4 091015Z 08003KT M00/M01 A303 RMK A01 T10021006  RH  097%=      5-min Rain = 0
KMC4 091016Z 08003KT M00/M01 A303 RMK A01 T10021007  RH  097%=      5-min Rain = 0
KMC4 091017Z 08003KT M00/M01 A303 RMK A01 T10021007  RH  097%=      5-min Rain = 0
KMC4 091018Z 08003KT M00/M01 A303 RMK A01 T10021007  RH  097%=      5-min Rain = 0
KMC4 091019Z 08003KT M00/M01 A303 RMK A01 T10021006  RH  097%=      5-min Rain = 0
KMC4 091020Z 07003KT M00/M01 A303 RMK A01 T10011006  RH  097%=      5-min Rain = 0
KMC4 091021Z 07003KT M00/M01 A303 RMK A01 T10021006  RH  097%=      5-min Rain = 0
KMC4 091022Z 07003KT M00/M01 A303 RMK A01 T10011006  RH  097%=      5-min Rain = 0
KMC4 091023Z 08003KT M00/M01 A303 RMK A01 T10011006  RH  097%=      5-min Rain = 0
KMC4 091024Z 08003KT M00/M01 A303 RMK A01 T10011005  RH  097%=      5-min Rain = 0
KMC4 091025Z 08003KT M00/M01 A303 RMK A01 T10011005  RH  097%=      5-min Rain = 0
KMC4 091026Z 07003KT 00/01 A303 RMK A01 T00-000-5  RH  097%=      5-min Rain = 0
KMC4 091027Z 07003KT 00/M00 A303 RMK A01 T00011004  RH  097%=      5-min Rain = 0
KMC4 091028Z 07003KT 00/00 A303 RMK A01 T000000-4  RH  097%=      5-min Rain = 0
KMC4 091029Z 07003KT 00/M00 A303 RMK A01 T00011004  RH  097%=      5-min Rain = 0
KMC4 091030Z 07003KT 00/00 A303 RMK A01 T000000-4  RH  097%=      5-min Rain = 0
KMC4 091031Z 06004KT 00/00 A303 RMK A01 T000000-4  RH  097%=      5-min Rain = 0
KMC4 091032Z 06004KT 00/00 A303 RMK A01 T000000-4  RH  097%=      5-min Rain = 0
KMC4 091033Z 06004KT 00/00 A303 RMK A01 T000000-4  RH  097%=      5-min Rain = 0
KMC4 091034Z 06004KT 00/00 A303 RMK A01 T000000-4  RH  097%=      5-min Rain = 0
KMC4 091035Z 06004KT 00/00 A303 RMK A01 T000000-4  RH  097%=      5-min Rain = 0
KMC4 091036Z 06004KT 00/00 A303 RMK A01 T000000-4  RH  097%=      5-min Rain = 0
KMC4 091037Z 06004KT 00/M00 A303 RMK A01 T00011004  RH  097%=      5-min Rain = 0
KMC4 091038Z 06003KT 00/M00 A303 RMK A01 T00011003  RH  097%=      5-min Rain = 0
KMC4 091039Z 06003KT 00/M00 A303 RMK A01 T00011003  RH  097%=      5-min Rain = 0
KMC4 091040Z 06003KT 00/M00 A303 RMK A01 T00011003  RH  097%=      5-min Rain = 0
KMC4 091041Z 06004KT 00/M00 A303 RMK A01 T00011003  RH  097%=      5-min Rain = 0
KMC4 091042Z 06004KT 00/M00 A303 RMK A01 T00011003  RH  097%=      5-min Rain = 0
KMC4 091043Z 06004KT 00/M00 A303 RMK A01 T00011003  RH  097%=      5-min Rain = 0
KMC4 091044Z 06004KT 00/M00 A303 RMK A01 T00011003  RH  097%=      5-min Rain = 0
KMC4 091045Z 06004KT 00/M00 A303 RMK A01 T00011003  RH  097%=      5-min Rain = 0
KMC4 091046Z 06004KT 00/M00 A303 RMK A01 T00011003  RH  097%=      5-min Rain = 0
KMC4 091047Z 06004KT 00/M00 A303 RMK A01 T00011003  RH  097%=      5-min Rain = 0
KMC4 091048Z 06003KT 00/M00 A3031 RMK A01 T00011002  RH  097%=      5-min Rain = 0
KMC4 091049Z 06003KT 00/M00 A3031 RMK A01 T00011002  RH  097%=      5-min Rain = 0
KMC4 091050Z 06003KT 00/M00 A3031 RMK A01 T00011003  RH  097%=      5-min Rain = 0
KMC4 091051Z 05003KT 00/M00 A3031 RMK A01 T00011002  RH  097%=      5-min Rain = 0
KMC4 091052Z 05003KT 00/M00 A3031 RMK A01 T00011003  RH  097%=      5-min Rain = 0
KMC4 091053Z 05003KT 00/M00 A3031 RMK A01 T00011003  RH  097%=      5-min Rain = 0
KMC4 091054Z 05003KT 00/M00 A3031 RMK A01 T00011002  RH  097%=      5-min Rain = 0
KMC4 091055Z 05003KT 00/M00 A3031 RMK A01 T00011002  RH  097%=      5-min Rain = 0
KMC4 091056Z 05003KT 00/M00 A3031 RMK A01 T00011003  RH  097%=      5-min Rain = 0
KMC4 091057Z 05003KT 00/M00 A3031 RMK A01 T00011003  RH  097%=      5-min Rain = 0
KMC4 091058Z 05003KT 00/M00 A3031 RMK A01 T00011003  RH  097%=      5-min Rain = 0
KMC4 091059Z 05003KT 00/M00 A3031 RMK A01 T00011003  RH  097%=      5-min Rain = 0
KMC4 091100Z 04003KT 00/M00 A3031 RMK A01 T00011003  RH  097%=      5-min Rain = 0
KMC4 091101Z 04004KT 00/M00 A3031 RMK A01 T00011002  RH  097%=      5-min Rain = 0
KMC4 091102Z 04004KT 00/M00 A3031 RMK A01 T00021002  RH  098%=      5-min Rain = 0
KMC4 091103Z 04003KT 00/M00 A3031 RMK A01 T00021002  RH  098%=      5-min Rain = 0
KMC4 091104Z 05003KT 00/M00 A3031 RMK A01 T00021002  RH  097%=      5-min Rain = 0
KMC4 091105Z 05003KT 00/M00 A3031 RMK A01 T00021002  RH  097%=      5-min Rain = 0
KMC4 091106Z 05003KT 00/M00 A3031 RMK A01 T00021002  RH  097%=      5-min Rain = 0
KMC4 091107Z 05003KT 00/M00 A3031 RMK A01 T00021002  RH  097%=      5-min Rain = 0
KMC4 091108Z 05003KT 00/M00 A3031 RMK A01 T00021002  RH  097%=      5-min Rain = 0
KMC4 091109Z 06003KT 00/M00 A3031 RMK A01 T00021002  RH  097%=      5-min Rain = 0
KMC4 091110Z 06003KT 00/M00 A3031 RMK A01 T00021002  RH  098%=      5-min Rain = 0
KMC4 091111Z 06003KT 00/M00 A3031 RMK A01 T00021001  RH  098%=      5-min Rain = 0
KMC4 091112Z 06003KT 00/M00 A3031 RMK A01 T00021001  RH  098%=      5-min Rain = 0
KMC4 091113Z 06003KT 00/M00 A3031 RMK A01 T00021001  RH  098%=      5-min Rain = 0
KMC4 091114Z 05003KT 00/M00 A3031 RMK A01 T00021001  RH  098%=      5-min Rain = 0
KMC4 091115Z 05003KT 00/M00 A3031 RMK A01 T00021001  RH  098%=      5-min Rain = 0
KMC4 091116Z 05003KT 00/M00 A3031 RMK A01 T00021001  RH  098%=      5-min Rain = 0
KMC4 091117Z 05002KT 00/M00 A3031 RMK A01 T00021001  RH  098%=      5-min Rain = 0
KMC4 091118Z 05002KT 00/M00 A3031 RMK A01 T00021001  RH  098%=      5-min Rain = 0
KMC4 091119Z 06002KT 00/M00 A3031 RMK A01 T00011002  RH  097%=      5-min Rain = 0
KMC4 091120Z 06003KT 00/M00 A3031 RMK A01 T00011003  RH  097%=      5-min Rain = 0
KMC4 091121Z 06003KT 00/00 A3031 RMK A01 T000000-3  RH  097%=      5-min Rain = 0
KMC4 091122Z 06003KT 00/00 A3031 RMK A01 T000000-3  RH  097%=      5-min Rain = 0
KMC4 091123Z 05003KT 00/00 A3031 RMK A01 T000000-3  RH  097%=      5-min Rain = 0
KMC4 091124Z 05003KT 00/M00 A3031 RMK A01 T00011003  RH  097%=      5-min Rain = 0
KMC4 091125Z 05003KT 00/00 A3031 RMK A01 T00-000-4  RH  097%=      5-min Rain = 0
KMC4 091126Z 05003KT M00/M01 A3031 RMK A01 T10011005  RH  097%=      5-min Rain = 0
KMC4 091127Z 05003KT M00/M00 A3031 RMK A01 T10011004  RH  098%=      5-min Rain = 0
KMC4 091128Z 05003KT 00/00 A3031 RMK A01 T000000-3  RH  098%=      5-min Rain = 0
KMC4 091129Z 05003KT 00/M00 A3031 RMK A01 T00011003  RH  098%=      5-min Rain = 0
KMC4 091130Z 05003KT 00/M00 A3031 RMK A01 T00011002  RH  098%=      5-min Rain = 0
KMC4 091131Z 05003KT 00/M00 A3031 RMK A01 T00011002  RH  098%=      5-min Rain = 0
KMC4 091132Z 05003KT 00/M00 A3031 RMK A01 T00011002  RH  098%=      5-min Rain = 0
KMC4 091133Z 05003KT 00/M00 A3031 RMK A01 T00011002  RH  098%=      5-min Rain = 0
KMC4 091134Z 05002KT 00/M00 A3031 RMK A01 T00011002  RH  098%=      5-min Rain = 0
KMC4 091135Z 05002KT 00/M00 A3031 RMK A01 T00011003  RH  098%=      5-min Rain = 0
KMC4 091136Z 05003KT 00/M00 A3031 RMK A01 T00011002  RH  098%=      5-min Rain = 0
KMC4 091137Z 05003KT 00/M00 A3031 RMK A01 T00011002  RH  098%=      5-min Rain = 0
KMC4 091138Z 05003KT 00/M00 A3031 RMK A01 T00011002  RH  098%=      5-min Rain = 0
KMC4 091139Z 04003KT 00/M00 A3031 RMK A01 T00011002  RH  098%=      5-min Rain = 0
KMC4 091140Z 04003KT 00/M00 A3031 RMK A01 T00011002  RH  098%=      5-min Rain = 0
KMC4 091141Z 04003KT 00/M00 A3031 RMK A01 T00011003  RH  098%=      5-min Rain = 0
KMC4 091142Z 04003KT 00/00 A3031 RMK A01 T000000-4  RH  097%=      5-min Rain = 0
KMC4 091143Z 04003KT M00/M01 A3031 RMK A01 T10011005  RH  097%=      5-min Rain = 0
KMC4 091144Z 04002KT M00/M01 A3031 RMK A01 T10011005  RH  097%=      5-min Rain = 0
KMC4 091145Z 04002KT M00/M01 A3031 RMK A01 T10021006  RH  097%=      5-min Rain = 0
KMC4 091146Z 04002KT M00/M01 A3032 RMK A01 T10021006  RH  097%=      5-min Rain = 0
KMC4 091147Z 04001KT M00/M01 A3032 RMK A01 T10031006  RH  097%=      5-min Rain = 0
KMC4 091148Z 04001KT M00/M01 A3032 RMK A01 T10031006  RH  097%=      5-min Rain = 0
KMC4 091149Z 04001KT M00/M01 A3032 RMK A01 T10021006  RH  097%=      5-min Rain = 0
KMC4 091150Z 04001KT M00/M01 A3032 RMK A01 T10021006  RH  097%=      5-min Rain = 0
KMC4 091151Z 04001KT M00/M01 A3032 RMK A01 T10011005  RH  097%=      5-min Rain = 0
KMC4 091152Z 04001KT M00/M01 A3032 RMK A01 T10011005  RH  098%=      5-min Rain = 0
KMC4 091153Z 04001KT M00/M00 A3032 RMK A01 T10011004  RH  098%=      5-min Rain = 0
KMC4 091154Z 04001KT M00/M00 A3032 RMK A01 T10011004  RH  098%=      5-min Rain = 0
KMC4 091155Z 04001KT M00/M00 A3032 RMK A01 T10011004  RH  098%=      5-min Rain = 0
KMC4 091156Z 04000KT M00/M00 A3032 RMK A01 T10011004  RH  098%=      5-min Rain = 0
KMC4 091157Z 00000KT M00/M01 A3032 RMK A01 T10021006  RH  097%=      5-min Rain = 0
KMC4 091158Z 00000KT M00/M01 A3032 RMK A01 T10031007  RH  097%=      5-min Rain = 0
KMC4 091159Z 00000KT M00/M01 A3032 RMK A01 T10041008  RH  097%=      5-min Rain = 0
KMC4 091200Z 00000KT M01/M01 A3032 RMK A01 T10051009  RH  097%=      5-min Rain = 0
KMC4 091201Z 00000KT M01/M01 A3032 RMK A01 T10051009  RH  097%=      5-min Rain = 0
KMC4 091202Z 00000KT M01/M01 A3032 RMK A01 T10051009  RH  097%=      5-min Rain = 0
KMC4 091203Z 00000KT M01/M01 A3032 RMK A01 T10051009  RH  097%=      5-min Rain = 0
KMC4 091204Z 00000KT M01/M01 A3032 RMK A01 T10071011  RH  097%=      5-min Rain = 0
KMC4 091205Z 00000KT M01/M01 A3032 RMK A01 T10081012  RH  097%=      5-min Rain = 0
KMC4 091206Z 00000KT M01/M01 A3032 RMK A01 T10081012  RH  097%=      5-min Rain = 0
KMC4 091207Z 00000KT M01/M01 A3032 RMK A01 T10081012  RH  097%=      5-min Rain = 0
KMC4 091208Z 00000KT M01/M01 A3032 RMK A01 T10081012  RH  097%=      5-min Rain = 0
KMC4 091209Z 00000KT M01/M01 A3032 RMK A01 T10081012  RH  097%=      5-min Rain = 0
KMC4 091210Z 00000KT M01/M01 A3032 RMK A01 T10071011  RH  097%=      5-min Rain = 0
KMC4 091211Z 00000KT M01/M01 A3032 RMK A01 T10071011  RH  097%=      5-min Rain = 0
KMC4 091212Z 00000KT M01/M01 A3032 RMK A01 T10071011  RH  097%=      5-min Rain = 0
KMC4 091213Z 01000KT M01/M01 A3033 RMK A01 T10071011  RH  097%=      5-min Rain = 0
KMC4 091214Z 01001KT M01/M01 A3033 RMK A01 T10071011  RH  097%=      5-min Rain = 0
KMC4 091215Z 01002KT M01/M01 A3033 RMK A01 T10071011  RH  097%=      5-min Rain = 0
KMC4 091216Z 01001KT M01/M01 A3033 RMK A01 T10071011  RH  097%=      5-min Rain = 0
KMC4 091217Z 01002KT M01/M01 A3033 RMK A01 T10071011  RH  097%=      5-min Rain = 0
KMC4 091218Z 01002KT M01/M01 A3033 RMK A01 T10081012  RH  097%=      5-min Rain = 0
KMC4 091219Z 01002KT M01/M01 A3033 RMK A01 T10081012  RH  097%=      5-min Rain = 0
KMC4 091220Z 01002KT M01/M01 A3033 RMK A01 T10081012  RH  097%=      5-min Rain = 0
KMC4 091221Z 01002KT M01/M01 A3033 RMK A01 T10081012  RH  097%=      5-min Rain = 0
KMC4 091222Z 01001KT M01/M01 A3033 RMK A01 T10081012  RH  097%=      5-min Rain = 0
KMC4 091223Z 01001KT M01/M01 A3033 RMK A01 T10071011  RH  097%=      5-min Rain = 0
KMC4 091224Z 00001KT M01/M01 A3033 RMK A01 T10071011  RH  097%=      5-min Rain = 0
KMC4 091225Z 00001KT M01/M01 A3033 RMK A01 T10081012  RH  097%=      5-min Rain = 0
KMC4 091226Z 00001KT M01/M01 A3033 RMK A01 T10071011  RH  097%=      5-min Rain = 0
KMC4 091227Z 00001KT M01/M01 A3033 RMK A01 T10071011  RH  097%=      5-min Rain = 0
KMC4 091228Z 00001KT M01/M01 A3033 RMK A01 T10071011  RH  097%=      5-min Rain = 0
KMC4 091229Z 00001KT M01/M01 A3033 RMK A01 T10071011  RH  097%=      5-min Rain = 0
KMC4 091230Z 00001KT M01/M01 A3033 RMK A01 T10071011  RH  097%=      5-min Rain = 0
KMC4 091231Z 00001KT M01/M01 A3033 RMK A01 T10081012  RH  097%=      5-min Rain = 0
KMC4 091232Z 00001KT M01/M01 A3033 RMK A01 T10081012  RH  097%=      5-min Rain = 0
KMC4 091233Z 00000KT M01/M01 A3033 RMK A01 T10081012  RH  097%=      5-min Rain = 0
KMC4 091234Z 00000KT M01/M01 A3033 RMK A01 T10081012  RH  097%=      5-min Rain = 0
KMC4 091235Z 00000KT M01/M01 A3033 RMK A01 T10091013  RH  097%=      5-min Rain = 0
KMC4 091236Z 00000KT M01/M01 A3033 RMK A01 T10091013  RH  097%=      5-min Rain = 0
KMC4 091237Z 00000KT M01/M01 A3033 RMK A01 T10091014  RH  097%=      5-min Rain = 0
KMC4 091238Z 00000KT M01/M01 A3033 RMK A01 T10101014  RH  097%=      5-min Rain = 0
KMC4 091239Z 00000KT M01/M02 A3033 RMK A01 T10101015  RH  097%=      5-min Rain = 0
KMC4 091240Z 00000KT M01/M02 A3033 RMK A01 T10111016  RH  097%=      5-min Rain = 0
KMC4 091241Z 00000KT M01/M02 A3034 RMK A01 T10121016  RH  097%=      5-min Rain = 0
KMC4 091242Z 00000KT M01/M02 A3033 RMK A01 T10121017  RH  097%=      5-min Rain = 0
KMC4 091243Z 00000KT M01/M02 A3033 RMK A01 T10121017  RH  097%=      5-min Rain = 0
KMC4 091244Z 00000KT M01/M02 A3033 RMK A01 T10121017  RH  097%=      5-min Rain = 0
KMC4 091245Z 00000KT M01/M02 A3033 RMK A01 T10131018  RH  097%=      5-min Rain = 0
KMC4 091246Z 00000KT M01/M02 A3033 RMK A01 T10131017  RH  097%=      5-min Rain = 0
KMC4 091247Z 00000KT M01/M02 A3033 RMK A01 T10131018  RH  097%=      5-min Rain = 0
KMC4 091248Z 00000KT M01/M02 A3033 RMK A01 T10131017  RH  097%=      5-min Rain = 0
KMC4 091249Z 00000KT M01/M02 A3033 RMK A01 T10131018  RH  097%=      5-min Rain = 0
KMC4 091250Z 00000KT M01/M02 A3034 RMK A01 T10131018  RH  097%=      5-min Rain = 0
KMC4 091251Z 00000KT M01/M02 A3034 RMK A01 T10131018  RH  097%=      5-min Rain = 0
KMC4 091252Z 00000KT M01/M02 A3034 RMK A01 T10131018  RH  097%=      5-min Rain = 0
KMC4 091253Z 00000KT M01/M02 A3034 RMK A01 T10131018  RH  097%=      5-min Rain = 0
KMC4 091254Z 00000KT M01/M02 A3034 RMK A01 T10131018  RH  097%=      5-min Rain = 0
KMC4 091255Z 00000KT M01/M02 A3034 RMK A01 T10131017  RH  097%=      5-min Rain = 0
KMC4 091256Z 00000KT M01/M02 A3034 RMK A01 T10131017  RH  097%=      5-min Rain = 0
KMC4 091257Z 00000KT M01/M02 A3034 RMK A01 T10131017  RH  097%=      5-min Rain = 0
KMC4 091258Z 00000KT M01/M02 A3034 RMK A01 T10121017  RH  097%=      5-min Rain = 0
KMC4 091259Z 00000KT M01/M02 A3034 RMK A01 T10121017  RH  097%=      5-min Rain = 0
KMC4 091300Z 00000KT M01/M02 A3034 RMK A01 T10121017  RH  097%=      5-min Rain = 0
KMC4 091301Z 00000KT M01/M02 A3034 RMK A01 T10121017  RH  097%=      5-min Rain = 0
KMC4 091302Z 00000KT M01/M02 A3034 RMK A01 T10131017  RH  097%=      5-min Rain = 0
KMC4 091303Z 00000KT M01/M02 A3034 RMK A01 T10131017  RH  097%=      5-min Rain = 0
KMC4 091304Z 00000KT M01/M02 A3035 RMK A01 T10131018  RH  097%=      5-min Rain = 0
KMC4 091305Z 00000KT M01/M02 A3035 RMK A01 T10131018  RH  097%=      5-min Rain = 0
KMC4 091306Z 00000KT M01/M02 A3035 RMK A01 T10141018  RH  097%=      5-min Rain = 0
KMC4 091307Z 00000KT M01/M02 A3035 RMK A01 T10141018  RH  097%=      5-min Rain = 0
KMC4 091308Z 00000KT M01/M02 A3035 RMK A01 T10141018  RH  097%=      5-min Rain = 0
KMC4 091309Z 00000KT M01/M02 A3035 RMK A01 T10131017  RH  097%=      5-min Rain = 0
KMC4 091310Z 00001KT M01/M02 A3035 RMK A01 T10121016  RH  097%=      5-min Rain = 0
KMC4 091311Z 00001KT M01/M02 A3035 RMK A01 T10121016  RH  097%=      5-min Rain = 0
KMC4 091312Z 00001KT M01/M02 A3035 RMK A01 T10121016  RH  097%=      5-min Rain = 0
KMC4 091313Z 00001KT M01/M02 A3035 RMK A01 T10121016  RH  097%=      5-min Rain = 0
KMC4 091314Z 00001KT M01/M02 A3035 RMK A01 T10121016  RH  097%=      5-min Rain = 0
KMC4 091315Z 00001KT M01/M02 A3035 RMK A01 T10111016  RH  097%=      5-min Rain = 0
KMC4 091316Z 00001KT M01/M02 A3035 RMK A01 T10111016  RH  097%=      5-min Rain = 0
KMC4 091317Z 00001KT M01/M02 A3035 RMK A01 T10121016  RH  097%=      5-min Rain = 0
KMC4 091318Z 00000KT M01/M02 A3035 RMK A01 T10121016  RH  097%=      5-min Rain = 0
KMC4 091319Z 00000KT M01/M02 A3035 RMK A01 T10121016  RH  097%=      5-min Rain = 0
KMC4 091320Z 00000KT M01/M02 A3035 RMK A01 T10121017  RH  097%=      5-min Rain = 0
KMC4 091321Z 00000KT M01/M02 A3035 RMK A01 T10121017  RH  097%=      5-min Rain = 0
KMC4 091322Z 24000KT M01/M02 A3035 RMK A01 T10131017  RH  097%=      5-min Rain = 0
KMC4 091323Z 24001KT M01/M02 A3035 RMK A01 T10121017  RH  097%=      5-min Rain = 0
KMC4 091324Z 24001KT M01/M02 A3035 RMK A01 T10131017  RH  097%=      5-min Rain = 0
KMC4 091325Z 24001KT M01/M02 A3035 RMK A01 T10121017  RH  097%=      5-min Rain = 0
KMC4 091326Z 24001KT M01/M02 A3035 RMK A01 T10131017  RH  097%=      5-min Rain = 0
KMC4 091327Z 24000KT M01/M02 A3035 RMK A01 T10121017  RH  097%=      5-min Rain = 0
KMC4 091328Z 00000KT M01/M02 A3035 RMK A01 T10121016  RH  097%=      5-min Rain = 0
KMC4 091329Z 00000KT M01/M02 A3035 RMK A01 T10111015  RH  097%=      5-min Rain = 0
KMC4 091330Z 00000KT M01/M02 A3035 RMK A01 T10111015  RH  097%=      5-min Rain = 0
KMC4 091331Z 00000KT M01/M01 A3035 RMK A01 T10101014  RH  097%=      5-min Rain = 0
KMC4 091332Z 32001KT M01/M01 A3035 RMK A01 T10091013  RH  097%=      5-min Rain = 0
KMC4 091333Z 32001KT M01/M01 A3035 RMK A01 T10091013  RH  097%=      5-min Rain = 0
KMC4 091334Z 32001KT M01/M01 A3035 RMK A01 T10091013  RH  097%=      5-min Rain = 0
KMC4 091335Z 32001KT M01/M01 A3035 RMK A01 T10081013  RH  097%=      5-min Rain = 0
KMC4 091336Z 32001KT M01/M01 A3036 RMK A01 T10081012  RH  097%=      5-min Rain = 0
KMC4 091337Z 32001KT M01/M01 A3036 RMK A01 T10081012  RH  097%=      5-min Rain = 0
KMC4 091338Z 33001KT M01/M01 A3036 RMK A01 T10071011  RH  097%=      5-min Rain = 0
KMC4 091339Z 35001KT M01/M01 A3036 RMK A01 T10061010  RH  097%=      5-min Rain = 0
KMC4 091340Z 35002KT M01/M01 A3036 RMK A01 T10051009  RH  097%=      5-min Rain = 0
KMC4 091341Z 00001KT M01/M01 A3036 RMK A01 T10051009  RH  097%=      5-min Rain = 0
KMC4 091342Z 01001KT M01/M01 A3036 RMK A01 T10051009  RH  097%=      5-min Rain = 0
KMC4 091343Z 01001KT M01/M01 A3036 RMK A01 T10051009  RH  097%=      5-min Rain = 0
KMC4 091344Z 01001KT M01/M01 A3036 RMK A01 T10051009  RH  097%=      5-min Rain = 0
KMC4 091345Z 01001KT M01/M01 A3036 RMK A01 T10051009  RH  097%=      5-min Rain = 0
KMC4 091346Z 01001KT M01/M01 A3036 RMK A01 T10061010  RH  097%=      5-min Rain = 0
KMC4 091347Z 01000KT M01/M01 A3036 RMK A01 T10061011  RH  097%=      5-min Rain = 0
KMC4 091348Z 00000KT M01/M01 A3036 RMK A01 T10071012  RH  096%=      5-min Rain = 0
KMC4 091349Z 01000KT M01/M01 A3036 RMK A01 T10071012  RH  096%=      5-min Rain = 0
KMC4 091350Z 00000KT M01/M01 A3036 RMK A01 T10081014  RH  096%=      5-min Rain = 0
KMC4 091351Z 00000KT M01/M01 A3037 RMK A01 T10081014  RH  096%=      5-min Rain = 0
KMC4 091352Z 27000KT M01/M01 A3037 RMK A01 T10081014  RH  096%=      5-min Rain = 0
KMC4 091353Z 26001KT M01/M01 A3037 RMK A01 T10081014  RH  096%=      5-min Rain = 0
KMC4 091354Z 26001KT M01/M01 A3037 RMK A01 T10081014  RH  096%=      5-min Rain = 0
KMC4 091355Z 26001KT M01/M01 A3037 RMK A01 T10081014  RH  096%=      5-min Rain = 0
KMC4 091356Z 26001KT M01/M01 A3037 RMK A01 T10081013  RH  096%=      5-min Rain = 0
KMC4 091357Z 26001KT M01/M01 A3037 RMK A01 T10081014  RH  096%=      5-min Rain = 0
KMC4 091358Z 26001KT M01/M01 A3037 RMK A01 T10081013  RH  096%=      5-min Rain = 0
KMC4 091359Z 26000KT M01/M01 A3037 RMK A01 T10071013  RH  096%=      5-min Rain = 0
KMC4 091400Z 00000KT M01/M01 A3037 RMK A01 T10071013  RH  096%=      5-min Rain = 0
KMC4 091401Z 00000KT M01/M01 A3037 RMK A01 T10071013  RH  096%=      5-min Rain = 0
KMC4 091402Z 00000KT M01/M01 A3037 RMK A01 T10071013  RH  096%=      5-min Rain = 0
KMC4 091403Z 00000KT M01/M01 A3037 RMK A01 T10061013  RH  096%=      5-min Rain = 0
KMC4 091404Z 00000KT M01/M01 A3037 RMK A01 T10061012  RH  096%=      5-min Rain = 0
KMC4 091405Z 00000KT M01/M01 A3037 RMK A01 T10061012  RH  096%=      5-min Rain = 0
KMC4 091406Z 00000KT M01/M01 A3037 RMK A01 T10051011  RH  096%=      5-min Rain = 0
KMC4 091407Z 00000KT M00/M01 A3037 RMK A01 T10041011  RH  096%=      5-min Rain = 0
KMC4 091408Z 00000KT M00/M01 A3037 RMK A01 T10041010  RH  096%=      5-min Rain = 0
KMC4 091409Z 26000KT M00/M01 A3037 RMK A01 T10031009  RH  096%=      5-min Rain = 0
KMC4 091410Z 00000KT M00/M01 A3037 RMK A01 T10021008  RH  096%=      5-min Rain = 0
KMC4 091411Z 00000KT M00/M01 A3037 RMK A01 T10021008  RH  096%=      5-min Rain = 0
KMC4 091412Z 00000KT M00/M01 A3037 RMK A01 T10011007  RH  096%=      5-min Rain = 0
KMC4 091413Z 00000KT 00/01 A3037 RMK A01 T00-000-7  RH  095%=      5-min Rain = 0
KMC4 091414Z 00000KT 00/01 A3037 RMK A01 T00-000-7  RH  095%=      5-min Rain = 0
KMC4 091415Z 01000KT M00/M01 A3038 RMK A01 T10011008  RH  095%=      5-min Rain = 0
KMC4 091416Z 01000KT 00/01 A3038 RMK A01 T000000-7  RH  095%=      5-min Rain = 0
KMC4 091417Z 00000KT 00/01 A3038 RMK A01 T000000-7  RH  095%=      5-min Rain = 0
KMC4 091418Z 01000KT 00/M01 A3038 RMK A01 T00011007  RH  095%=      5-min Rain = 0
KMC4 091419Z 05001KT 00/M01 A3038 RMK A01 T00011007  RH  095%=      5-min Rain = 0
KMC4 091420Z 05001KT 00/M01 A3038 RMK A01 T00021005  RH  095%=      5-min Rain = 0
KMC4 091421Z 05001KT 00/M00 A3038 RMK A01 T00041004  RH  095%=      5-min Rain = 0
KMC4 091422Z 05001KT 00/M00 A3038 RMK A01 T00041003  RH  095%=      5-min Rain = 0
KMC4 091423Z 04001KT 01/M00 A3038 RMK A01 T00051003  RH  094%=      5-min Rain = 0
KMC4 091424Z 04001KT 01/M00 A3038 RMK A01 T00061003  RH  094%=      5-min Rain = 0
KMC4 091425Z 04001KT 01/M00 A3038 RMK A01 T00061002  RH  094%=      5-min Rain = 0
KMC4 091426Z 04001KT 01/M00 A3038 RMK A01 T00071001  RH  094%=      5-min Rain = 0
KMC4 091427Z 04000KT 01/M00 A3038 RMK A01 T00081001  RH  094%=      5-min Rain = 0
KMC4 091428Z 04001KT 01/00 A3038 RMK A01 T00090000  RH  094%=      5-min Rain = 0
KMC4 091429Z 04001KT 01/00 A3038 RMK A01 T00100001  RH  094%=      5-min Rain = 0
KMC4 091430Z 04001KT 01/00 A3038 RMK A01 T00110002  RH  093%=      5-min Rain = 0
KMC4 091431Z 06001KT 01/00 A3038 RMK A01 T00120002  RH  093%=      5-min Rain = 0
KMC4 091432Z 08001KT 01/00 A3038 RMK A01 T00120001  RH  093%=      5-min Rain = 0
KMC4 091433Z 07001KT 01/00 A3039 RMK A01 T00120000  RH  092%=      5-min Rain = 0
KMC4 091434Z 07001KT 01/00 A3039 RMK A01 T001200-0  RH  092%=      5-min Rain = 0
KMC4 091435Z 07001KT 01/00 A3039 RMK A01 T001300-0  RH  091%=      5-min Rain = 0
KMC4 091436Z 05001KT 01/00 A3039 RMK A01 T001300-0  RH  091%=      5-min Rain = 0
KMC4 091437Z 05002KT 01/00 A3038 RMK A01 T00140000  RH  091%=      5-min Rain = 0
KMC4 091438Z 04002KT 01/00 A3038 RMK A01 T00140001  RH  091%=      5-min Rain = 0
KMC4 091439Z 04002KT 01/00 A3038 RMK A01 T00140001  RH  091%=      5-min Rain = 0
KMC4 091440Z 05002KT 02/00 A3039 RMK A01 T00150001  RH  091%=      5-min Rain = 0
KMC4 091441Z 05002KT 02/00 A3039 RMK A01 T00150001  RH  091%=      5-min Rain = 0
KMC4 091442Z 06002KT 02/00 A3039 RMK A01 T00150002  RH  091%=      5-min Rain = 0
KMC4 091443Z 07002KT 02/00 A3039 RMK A01 T00160003  RH  091%=      5-min Rain = 0
KMC4 091444Z 06002KT 02/00 A3039 RMK A01 T00170003  RH  091%=      5-min Rain = 0
KMC4 091445Z 07002KT 02/00 A3039 RMK A01 T00170004  RH  091%=      5-min Rain = 0
KMC4 091446Z 06002KT 02/00 A3039 RMK A01 T00180003  RH  090%=      5-min Rain = 0
KMC4 091447Z 08003KT 02/00 A3039 RMK A01 T00180003  RH  090%=      5-min Rain = 0
KMC4 091448Z 08003KT 02/00 A3039 RMK A01 T00180003  RH  090%=      5-min Rain = 0
KMC4 091449Z 08003KT 02/00 A3039 RMK A01 T00180003  RH  090%=      5-min Rain = 0
KMC4 091450Z 07004KT 02/00 A3039 RMK A01 T00180003  RH  090%=      5-min Rain = 0
KMC4 091451Z 07004KT 02/00 A3039 RMK A01 T00180003  RH  090%=      5-min Rain = 0
KMC4 091452Z 07004KT 02/00 A3039 RMK A01 T00170002  RH  090%=      5-min Rain = 0
KMC4 091453Z 07004KT 02/00 A3039 RMK A01 T00170003  RH  090%=      5-min Rain = 0
KMC4 091454Z 06004KT 02/00 A3039 RMK A01 T00170003  RH  091%=      5-min Rain = 0
KMC4 091455Z 06003KT 02/00 A3039 RMK A01 T00170004  RH  091%=      5-min Rain = 0
KMC4 091456Z 05003KT 02/00 A3039 RMK A01 T00170004  RH  091%=      5-min Rain = 0
KMC4 091457Z 05004KT 02/01 A3039 RMK A01 T00180006  RH  091%=      5-min Rain = 0
KMC4 091458Z 05004KT 02/01 A3039 RMK A01 T00190006  RH  092%=      5-min Rain = 0
KMC4 091459Z 04003KT 02/01 A3039 RMK A01 T00190007  RH  091%=      5-min Rain = 0
KMC4 091500Z 04004KT 02/01 A3039 RMK A01 T00200008  RH  092%=      5-min Rain = 0
KMC4 091501Z 04004KT 02/01 A304 RMK A01 T00210008  RH  092%=      5-min Rain = 0
KMC4 091502Z 03003KT 02/01 A304 RMK A01 T00210009  RH  091%=      5-min Rain = 0
KMC4 091503Z 05003KT 02/01 A304 RMK A01 T00220010  RH  092%=      5-min Rain = 0
KMC4 091504Z 06003KT 02/01 A304 RMK A01 T00230011  RH  092%=      5-min Rain = 0
KMC4 091505Z 05003KT 03/01 A304 RMK A01 T00250012  RH  092%=      5-min Rain = 0
KMC4 091506Z 06003KT 03/01 A304 RMK A01 T00250012  RH  091%=      5-min Rain = 0
KMC4 091507Z 07002KT 03/01 A304 RMK A01 T00260012  RH  090%=      5-min Rain = 0
KMC4 091508Z 06003KT 03/01 A304 RMK A01 T00270011  RH  089%=      5-min Rain = 0
KMC4 091509Z 07003KT 03/01 A304 RMK A01 T00280010  RH  089%=      5-min Rain = 0
KMC4 091510Z 07003KT 03/01 A304 RMK A01 T00280010  RH  088%=      5-min Rain = 0
KMC4 091511Z 06003KT 03/01 A304 RMK A01 T00290010  RH  087%=      5-min Rain = 0
KMC4 091512Z 05003KT 03/01 A304 RMK A01 T00300009  RH  086%=      5-min Rain = 0
KMC4 091513Z 05003KT 03/01 A304 RMK A01 T00300009  RH  086%=      5-min Rain = 0
KMC4 091514Z 05003KT 03/01 A304 RMK A01 T00310009  RH  085%=      5-min Rain = 0
KMC4 091515Z 06005KT 03/01 A304 RMK A01 T00310008  RH  085%=      5-min Rain = 0
KMC4 091516Z 06005KT 03/01 A304 RMK A01 T00320007  RH  084%=      5-min Rain = 0
KMC4 091517Z 06004KT 03/01 A304 RMK A01 T00320006  RH  083%=      5-min Rain = 0
KMC4 091518Z 07003KT 03/01 A304 RMK A01 T00320007  RH  084%=      5-min Rain = 0
KMC4 091519Z 07004KT 03/01 A304 RMK A01 T00320007  RH  084%=      5-min Rain = 0
KMC4 091520Z 08005KT 03/01 A304 RMK A01 T00320006  RH  083%=      5-min Rain = 0
KMC4 091521Z 07005KT 03/01 A304 RMK A01 T00330005  RH  082%=      5-min Rain = 0
KMC4 091522Z 06004KT 03/00 A304 RMK A01 T00330004  RH  081%=      5-min Rain = 0
KMC4 091523Z 05005KT 03/00 A304 RMK A01 T00340004  RH  081%=      5-min Rain = 0
KMC4 091524Z 06006KT 03/01 A304 RMK A01 T00340006  RH  081%=      5-min Rain = 0
KMC4 091525Z 07004KT 04/01 A304 RMK A01 T00350007  RH  082%=      5-min Rain = 0
KMC4 091526Z 07004KT 04/01 A304 RMK A01 T00360009  RH  083%=      5-min Rain = 0
KMC4 091527Z 07003KT 04/01 A304 RMK A01 T00370009  RH  082%=      5-min Rain = 0
KMC4 091528Z 07005KT 04/01 A304 RMK A01 T00380010  RH  082%=      5-min Rain = 0
KMC4 091529Z 07006KT 04/01 A304 RMK A01 T00380008  RH  081%=      5-min Rain = 0
KMC4 091530Z 07005KT 04/01 A304 RMK A01 T00380006  RH  079%=      5-min Rain = 0
KMC4 091531Z 06005KT 04/01 A304 RMK A01 T00380005  RH  079%=      5-min Rain = 0
KMC4 091532Z 05006KT 04/01 A304 RMK A01 T00380007  RH  080%=      5-min Rain = 0
KMC4 091533Z 06007KT 04/01 A304 RMK A01 T00380005  RH  079%=      5-min Rain = 0
KMC4 091534Z 05006KT 04/00 A304 RMK A01 T00370002  RH  078%=      5-min Rain = 0
KMC4 091535Z 06005KT 04/00 A304 RMK A01 T00360002  RH  079%=      5-min Rain = 0
KMC4 091536Z 05005KT 04/00 A304 RMK A01 T00360004  RH  079%=      5-min Rain = 0
KMC4 091537Z 05005KT 04/01 A304 RMK A01 T00370006  RH  080%=      5-min Rain = 0
KMC4 091538Z 07004KT 04/01 A304 RMK A01 T00380007  RH  081%=      5-min Rain = 0
KMC4 091539Z 06007KT 04/01 A304 RMK A01 T00380007  RH  080%=      5-min Rain = 0
KMC4 091540Z 06007KT 04/00 A304 RMK A01 T00390004  RH  078%=      5-min Rain = 0
KMC4 091541Z 06006KT 04/00 A304 RMK A01 T00390004  RH  078%=      5-min Rain = 0
KMC4 091542Z 06007KT 04/00 A3041 RMK A01 T00380003  RH  078%=      5-min Rain = 0
KMC4 091543Z 06007KT 04/00 A3041 RMK A01 T00390003  RH  078%=      5-min Rain = 0
KMC4 091544Z 04008KT 04/01 A3041 RMK A01 T00400005  RH  078%=      5-min Rain = 0
KMC4 091545Z 04007KT 04/00 A3041 RMK A01 T00400003  RH  077%=      5-min Rain = 0
KMC4 091546Z 04008KT 04/01 A3041 RMK A01 T00400005  RH  078%=      5-min Rain = 0
KMC4 091547Z 04008KT 04/00 A3041 RMK A01 T00400003  RH  076%=      5-min Rain = 0
KMC4 091548Z 06005KT 04/00 A3041 RMK A01 T00410002  RH  076%=      5-min Rain = 0
KMC4 091549Z 06005KT 04/00 A3041 RMK A01 T00420003  RH  076%=      5-min Rain = 0
KMC4 091550Z 05005KT 04/00 A3041 RMK A01 T00420004  RH  077%=      5-min Rain = 0
KMC4 091551Z 06004KT 04/01 A3041 RMK A01 T00430007  RH  078%=      5-min Rain = 0
KMC4 091552Z 06005KT 04/01 A3041 RMK A01 T00440007  RH  077%=      5-min Rain = 0
KMC4 091553Z 06005KT 05/01 A3041 RMK A01 T00450006  RH  076%=      5-min Rain = 0
KMC4 091554Z 05005KT 05/01 A3041 RMK A01 T00450005  RH  075%=      5-min Rain = 0
KMC4 091555Z 05006KT 05/01 A3041 RMK A01 T00450005  RH  075%=      5-min Rain = 0
KMC4 091556Z 06005KT 05/01 A3041 RMK A01 T00450005  RH  075%=      5-min Rain = 0
KMC4 091557Z 05007KT 05/00 A3041 RMK A01 T00450004  RH  075%=      5-min Rain = 0
KMC4 091558Z 05007KT 05/00 A3041 RMK A01 T00450003  RH  074%=      5-min Rain = 0
KMC4 091559Z 05007KT 05/00 A3041 RMK A01 T00450002  RH  074%=      5-min Rain = 0
KMC4 091600Z 06007KT 05/00 A3041 RMK A01 T00450003  RH  074%=      5-min Rain = 0
KMC4 091601Z 06007KT 05/00 A3041 RMK A01 T00450003  RH  075%=      5-min Rain = 0
KMC4 091602Z 06006KT 05/00 A3041 RMK A01 T00450004  RH  075%=      5-min Rain = 0
KMC4 091603Z 07007KT 05/00 A3041 RMK A01 T00450004  RH  074%=      5-min Rain = 0
KMC4 091604Z 07006KT 05/00 A3042 RMK A01 T00450002  RH  073%=      5-min Rain = 0
KMC4 091605Z 07006KT 05/00 A3042 RMK A01 T00460004  RH  074%=      5-min Rain = 0
KMC4 091606Z 07007KT 05/00 A3042 RMK A01 T00460003  RH  074%=      5-min Rain = 0
KMC4 091607Z 07007KT 05/01 A3042 RMK A01 T00470005  RH  074%=      5-min Rain = 0
KMC4 091608Z 06008KT 05/00 A3042 RMK A01 T00470004  RH  074%=      5-min Rain = 0
KMC4 091609Z 06008KT 05/00 A3042 RMK A01 T00470002  RH  073%=      5-min Rain = 0
KMC4 091610Z 06006KT 05/00 A3042 RMK A01 T00470001  RH  072%=      5-min Rain = 0
KMC4 091611Z 06007KT 05/00 A3042 RMK A01 T00470004  RH  074%=      5-min Rain = 0
KMC4 091612Z 06008KT 05/01 A3042 RMK A01 T00480005  RH  073%=      5-min Rain = 0
KMC4 091613Z 06007KT 05/00 A3042 RMK A01 T00490004  RH  073%=      5-min Rain = 0
KMC4 091614Z 06007KT 05/00 A3042 RMK A01 T00490003  RH  072%=      5-min Rain = 0
KMC4 091615Z 06007KT 05/01 A3042 RMK A01 T00490005  RH  073%=      5-min Rain = 0
KMC4 091616Z 06008KT 05/00 A3042 RMK A01 T00500003  RH  072%=      5-min Rain = 0
KMC4 091617Z 06007KT 05/00 A3042 RMK A01 T00490003  RH  072%=      5-min Rain = 0
KMC4 091618Z 06007KT 05/00 A3042 RMK A01 T00490004  RH  072%=      5-min Rain = 0
KMC4 091619Z 06007KT 05/00 A3042 RMK A01 T00490003  RH  072%=      5-min Rain = 0
KMC4 091620Z 06006KT 05/00 A3042 RMK A01 T00490003  RH  072%=      5-min Rain = 0
KMC4 091621Z 07006KT 05/00 A3042 RMK A01 T00490003  RH  072%=      5-min Rain = 0
KMC4 091622Z 06007KT 05/00 A3042 RMK A01 T00490003  RH  072%=      5-min Rain = 0
KMC4 091623Z 07007KT 05/00 A3042 RMK A01 T00500004  RH  072%=      5-min Rain = 0
KMC4 091624Z 07008KT 05/00 A3042 RMK A01 T00500003  RH  071%=      5-min Rain = 0
KMC4 091625Z 07008KT 05/00 A3042 RMK A01 T00500002  RH  071%=      5-min Rain = 0
KMC4 091626Z 07007KT 05/00 A3042 RMK A01 T00500002  RH  071%=      5-min Rain = 0
KMC4 091627Z 06008KT 05/01 A3042 RMK A01 T00510005  RH  072%=      5-min Rain = 0
KMC4 091628Z 06008KT 05/00 A3042 RMK A01 T00510003  RH  071%=      5-min Rain = 0
KMC4 091629Z 06007KT 05/00 A3042 RMK A01 T00510002  RH  071%=      5-min Rain = 0
KMC4 091630Z 05008KT 05/00 A3042 RMK A01 T00510002  RH  071%=      5-min Rain = 0
KMC4 091631Z 06006KT 05/00 A3042 RMK A01 T00510003  RH  071%=      5-min Rain = 0
KMC4 091632Z 06007KT 05/00 A3042 RMK A01 T00510003  RH  071%=      5-min Rain = 0
KMC4 091633Z 06008KT 05/00 A3042 RMK A01 T00520003  RH  071%=      5-min Rain = 0
KMC4 091634Z 06008KT 05/00 A3042 RMK A01 T00520001  RH  070%=      5-min Rain = 0
KMC4 091635Z 07009KT 05/00 A3042 RMK A01 T00520002  RH  070%=      5-min Rain = 0
KMC4 091636Z 06008KT 05/00 A3042 RMK A01 T00510001  RH  070%=      5-min Rain = 0
KMC4 091637Z 07008KT 05/00 A3042 RMK A01 T005100-0  RH  069%=      5-min Rain = 0
KMC4 091638Z 06006KT 05/00 A3042 RMK A01 T00510002  RH  070%=      5-min Rain = 0
KMC4 091639Z 05008KT 05/00 A3042 RMK A01 T00520002  RH  070%=      5-min Rain = 0
KMC4 091640Z 05007KT 05/00 A3042 RMK A01 T00520000  RH  069%=      5-min Rain = 0
KMC4 091641Z 07005KT 05/00 A3042 RMK A01 T00520001  RH  070%=      5-min Rain = 0
KMC4 091642Z 06007KT 05/00 A3042 RMK A01 T00540004  RH  070%=      5-min Rain = 0
KMC4 091643Z 06008KT 05/00 A3042 RMK A01 T00540001  RH  069%=      5-min Rain = 0
KMC4 091644Z 06007KT 05/00 A3042 RMK A01 T00540001  RH  069%=      5-min Rain = 0
KMC4 091645Z 07008KT 05/00 A3042 RMK A01 T00540003  RH  069%=      5-min Rain = 0
KMC4 091646Z 05006KT 06/00 A3042 RMK A01 T00550003  RH  069%=      5-min Rain = 0
KMC4 091647Z 07006KT 06/01 A3042 RMK A01 T00550005  RH  070%=      5-min Rain = 0
KMC4 091648Z 06008KT 06/00 A3042 RMK A01 T00570004  RH  069%=      5-min Rain = 0
KMC4 091649Z 05007KT 06/00 A3042 RMK A01 T00570000  RH  067%=      5-min Rain = 0
KMC4 091650Z 05007KT 06/00 A3042 RMK A01 T00560001  RH  068%=      5-min Rain = 0
KMC4 091651Z 05007KT 06/00 A3042 RMK A01 T00570001  RH  067%=      5-min Rain = 0
KMC4 091652Z 04006KT 06/M00 A3042 RMK A01 T00561001  RH  067%=      5-min Rain = 0
KMC4 091653Z 04005KT 06/M00 A3042 RMK A01 T00561002  RH  066%=      5-min Rain = 0
KMC4 091654Z 04004KT 06/00 A3042 RMK A01 T00560003  RH  068%=      5-min Rain = 0
KMC4 091655Z 05005KT 06/01 A3042 RMK A01 T00590007  RH  069%=      5-min Rain = 0
KMC4 091656Z 05006KT 06/00 A3042 RMK A01 T00610002  RH  066%=      5-min Rain = 0
KMC4 091657Z 03008KT 06/00 A3042 RMK A01 T00610004  RH  066%=      5-min Rain = 0
KMC4 091658Z 05008KT 06/00 A3042 RMK A01 T00620000  RH  065%=      5-min Rain = 0
KMC4 091659Z 05007KT 06/M00 A3042 RMK A01 T00601003  RH  064%=      5-min Rain = 0
KMC4 091700Z 04006KT 06/M00 A3042 RMK A01 T00591003  RH  065%=      5-min Rain = 0
KMC4 091701Z 05005KT 06/00 A3042 RMK A01 T00590004  RH  068%=      5-min Rain = 0
KMC4 091702Z 07006KT 06/00 A3042 RMK A01 T00620004  RH  066%=      5-min Rain = 0
KMC4 091703Z 06007KT 06/00 A3042 RMK A01 T00620000  RH  065%=      5-min Rain = 0
KMC4 091704Z 06007KT 06/M00 A3042 RMK A01 T00611004  RH  063%=      5-min Rain = 0
KMC4 091705Z 06007KT 06/M00 A3042 RMK A01 T00601002  RH  064%=      5-min Rain = 0
KMC4 091706Z 05007KT 06/M00 A3042 RMK A01 T00601003  RH  064%=      5-min Rain = 0
KMC4 091707Z 04006KT 06/M01 A3042 RMK A01 T00601005  RH  063%=      5-min Rain = 0
KMC4 091708Z 06006KT 06/M00 A3042 RMK A01 T00611004  RH  063%=      5-min Rain = 0
KMC4 091709Z 07004KT 06/00 A3042 RMK A01 T006200-0  RH  064%=      5-min Rain = 0
KMC4 091710Z 07006KT 06/M00 A3042 RMK A01 T00621001  RH  064%=      5-min Rain = 0
KMC4 091711Z 07006KT 06/M01 A3042 RMK A01 T00621005  RH  062%=      5-min Rain = 0
KMC4 091712Z 06007KT 06/M00 A3042 RMK A01 T00621004  RH  063%=      5-min Rain = 0
KMC4 091713Z 06006KT 06/M00 A3042 RMK A01 T00621003  RH  063%=      5-min Rain = 0
KMC4 091714Z 05006KT 06/M00 A3042 RMK A01 T00621004  RH  062%=      5-min Rain = 0
KMC4 091715Z 06005KT 06/M00 A3042 RMK A01 T00631001  RH  064%=      5-min Rain = 0
KMC4 091716Z 08006KT 06/M00 A3042 RMK A01 T00631004  RH  062%=      5-min Rain = 0
KMC4 091717Z 08006KT 06/M01 A3042 RMK A01 T00631006  RH  061%=      5-min Rain = 0
KMC4 091718Z 06005KT 06/M00 A3042 RMK A01 T00631002  RH  063%=      5-min Rain = 0
KMC4 091719Z 04005KT 06/M01 A3042 RMK A01 T00641005  RH  062%=      5-min Rain = 0
KMC4 091720Z 08005KT 06/M00 A3042 RMK A01 T00631004  RH  062%=      5-min Rain = 0
KMC4 091721Z 06005KT 06/00 A3042 RMK A01 T00640001  RH  064%=      5-min Rain = 0
KMC4 091722Z 07006KT 07/00 A3042 RMK A01 T00660001  RH  063%=      5-min Rain = 0
KMC4 091723Z 07005KT 07/M00 A3042 RMK A01 T00661002  RH  062%=      5-min Rain = 0
KMC4 091724Z 08003KT 07/M00 A3042 RMK A01 T00651002  RH  062%=      5-min Rain = 0
KMC4 091725Z 07004KT 07/M00 A3042 RMK A01 T00651004  RH  061%=      5-min Rain = 0
KMC4 091726Z 06006KT 07/M01 A3042 RMK A01 T00651005  RH  061%=      5-min Rain = 0
KMC4 091727Z 06006KT 07/M01 A3042 RMK A01 T00651007  RH  060%=      5-min Rain = 0
KMC4 091728Z 07004KT 07/M01 A3042 RMK A01 T00651008  RH  060%=      5-min Rain = 0
KMC4 091729Z 07006KT 07/M00 A3041 RMK A01 T00661004  RH  061%=      5-min Rain = 0
KMC4 091730Z 08007KT 07/M00 A3041 RMK A01 T00671002  RH  062%=      5-min Rain = 0
KMC4 091731Z 08006KT 07/M00 A3041 RMK A01 T00671003  RH  061%=      5-min Rain = 0
KMC4 091732Z 08006KT 07/M00 A3041 RMK A01 T00671001  RH  062%=      5-min Rain = 0
KMC4 091733Z 07005KT 07/M00 A3041 RMK A01 T00671004  RH  061%=      5-min Rain = 0
KMC4 091734Z 07005KT 07/M00 A3041 RMK A01 T00671002  RH  061%=      5-min Rain = 0
KMC4 091735Z 08006KT 07/00 A3041 RMK A01 T00700001  RH  061%=      5-min Rain = 0
KMC4 091736Z 06005KT 07/00 A3041 RMK A01 T00700000  RH  061%=      5-min Rain = 0
KMC4 091737Z 05003KT 07/00 A3041 RMK A01 T00700000  RH  061%=      5-min Rain = 0
KMC4 091738Z 07004KT 07/00 A3041 RMK A01 T00710001  RH  061%=      5-min Rain = 0
KMC4 091739Z 08007KT 07/M00 A3041 RMK A01 T00711002  RH  060%=      5-min Rain = 0
KMC4 091740Z 08006KT 07/M00 A3041 RMK A01 T00701001  RH  061%=      5-min Rain = 0
KMC4 091741Z 07006KT 07/00 A3041 RMK A01 T007000-0  RH  061%=      5-min Rain = 0
KMC4 091742Z 06004KT 07/M00 A3041 RMK A01 T00701002  RH  060%=      5-min Rain = 0
KMC4 091743Z 05004KT 07/M00 A3041 RMK A01 T00701004  RH  059%=      5-min Rain = 0
KMC4 091744Z 09004KT 07/M00 A3041 RMK A01 T00701002  RH  060%=      5-min Rain = 0
KMC4 091745Z 07006KT 07/00 A3041 RMK A01 T00710003  RH  062%=      5-min Rain = 0
KMC4 091746Z 06005KT 07/M00 A3041 RMK A01 T00721004  RH  059%=      5-min Rain = 0
KMC4 091747Z 05005KT 07/M01 A3041 RMK A01 T00711006  RH  058%=      5-min Rain = 0
KMC4 091748Z 05004KT 07/M01 A3041 RMK A01 T00701005  RH  059%=      5-min Rain = 0
KMC4 091749Z 09004KT 07/00 A3041 RMK A01 T00710000  RH  061%=      5-min Rain = 0
KMC4 091750Z 05005KT 07/00 A3041 RMK A01 T007300-0  RH  060%=      5-min Rain = 0
KMC4 091751Z 05004KT 07/M00 A3041 RMK A01 T00731002  RH  059%=      5-min Rain = 0
KMC4 091752Z 07005KT 07/00 A3041 RMK A01 T00740003  RH  061%=      5-min Rain = 0
KMC4 091753Z 07006KT 08/00 A3041 RMK A01 T00760001  RH  059%=      5-min Rain = 0
KMC4 091754Z 06005KT 08/M00 A3041 RMK A01 T00761002  RH  058%=      5-min Rain = 0
KMC4 091755Z 03003KT 08/M00 A3041 RMK A01 T00751002  RH  058%=      5-min Rain = 0
KMC4 091756Z 03004KT 08/M00 A3041 RMK A01 T00751001  RH  059%=      5-min Rain = 0
KMC4 091757Z 06006KT 08/01 A3041 RMK A01 T00760005  RH  061%=      5-min Rain = 0
KMC4 091758Z 06005KT 08/00 A3041 RMK A01 T007600-0  RH  058%=      5-min Rain = 0
KMC4 091759Z 08004KT 08/00 A3041 RMK A01 T00760001  RH  059%=      5-min Rain = 0
KMC4 091800Z 06003KT 08/00 A3041 RMK A01 T00760003  RH  060%=      5-min Rain = 0
KMC4 091801Z 02005KT 08/00 A3041 RMK A01 T00760000  RH  059%=      5-min Rain = 0
KMC4 091802Z 01005KT 08/00 A304 RMK A01 T00760000  RH  059%=      5-min Rain = 0
KMC4 091803Z 03004KT 08/M00 A304 RMK A01 T00751003  RH  058%=      5-min Rain = 0
KMC4 091804Z 05005KT 08/00 A304 RMK A01 T007500-0  RH  059%=      5-min Rain = 0
KMC4 091805Z 05004KT 08/M00 A304 RMK A01 T00751001  RH  058%=      5-min Rain = 0
KMC4 091806Z 05005KT 08/M00 A304 RMK A01 T00751001  RH  059%=      5-min Rain = 0
KMC4 091807Z 06007KT 08/00 A304 RMK A01 T00760004  RH  060%=      5-min Rain = 0
KMC4 091808Z 05005KT 08/00 A304 RMK A01 T00770003  RH  059%=      5-min Rain = 0
KMC4 091809Z 07004KT 08/00 A304 RMK A01 T00780002  RH  059%=      5-min Rain = 0
KMC4 091810Z 04004KT 08/00 A304 RMK A01 T00770001  RH  059%=      5-min Rain = 0
KMC4 091811Z 04007KT 08/00 A304 RMK A01 T00770001  RH  059%=      5-min Rain = 0
KMC4 091812Z 04006KT 08/00 A304 RMK A01 T007600-0  RH  058%=      5-min Rain = 0
KMC4 091813Z 04004KT 08/00 A304 RMK A01 T00750001  RH  059%=      5-min Rain = 0
KMC4 091814Z 04003KT 08/M00 A304 RMK A01 T00751002  RH  058%=      5-min Rain = 0
KMC4 091815Z 05003KT 07/00 A304 RMK A01 T00740002  RH  060%=      5-min Rain = 0
KMC4 091816Z 08006KT 08/01 A304 RMK A01 T00770009  RH  062%=      5-min Rain = 0
KMC4 091817Z 08007KT 08/00 A3039 RMK A01 T00770002  RH  059%=      5-min Rain = 0
KMC4 091818Z 10005KT 08/M00 A3039 RMK A01 T00761001  RH  058%=      5-min Rain = 0
KMC4 091819Z 09005KT 08/00 A3039 RMK A01 T00750002  RH  060%=      5-min Rain = 0
KMC4 091820Z 08006KT 08/00 A3039 RMK A01 T00760004  RH  060%=      5-min Rain = 0
KMC4 091821Z 07006KT 08/00 A3039 RMK A01 T00760002  RH  059%=      5-min Rain = 0
KMC4 091822Z 08006KT 08/00 A3039 RMK A01 T00760001  RH  059%=      5-min Rain = 0
KMC4 091823Z 08006KT 08/00 A3039 RMK A01 T007700-0  RH  058%=      5-min Rain = 0
KMC4 091824Z 06006KT 08/00 A3039 RMK A01 T00770001  RH  059%=      5-min Rain = 0
KMC4 091825Z 05005KT 08/00 A3039 RMK A01 T00780004  RH  060%=      5-min Rain = 0
KMC4 091826Z 06005KT 08/01 A3039 RMK A01 T00790006  RH  060%=      5-min Rain = 0
KMC4 091827Z 07006KT 08/01 A3039 RMK A01 T00810009  RH  061%=      5-min Rain = 0
KMC4 091828Z 08006KT 08/01 A3039 RMK A01 T00820007  RH  059%=      5-min Rain = 0
KMC4 091829Z 07006KT 08/01 A3039 RMK A01 T00820006  RH  059%=      5-min Rain = 0
KMC4 091830Z 05004KT 08/01 A3039 RMK A01 T00810005  RH  059%=      5-min Rain = 0
KMC4 091831Z 06004KT 08/01 A3039 RMK A01 T00810006  RH  059%=      5-min Rain = 0
KMC4 091832Z 08005KT 08/00 A3038 RMK A01 T00810004  RH  058%=      5-min Rain = 0
KMC4 091833Z 06007KT 08/00 A3038 RMK A01 T00800004  RH  058%=      5-min Rain = 0
KMC4 091834Z 06005KT 08/00 A3038 RMK A01 T00800004  RH  058%=      5-min Rain = 0
KMC4 091835Z 06004KT 08/00 A3038 RMK A01 T00790001  RH  058%=      5-min Rain = 0
KMC4 091836Z 03002KT 08/00 A3038 RMK A01 T00780001  RH  058%=      5-min Rain = 0
KMC4 091837Z 05005KT 08/00 A3038 RMK A01 T00780004  RH  060%=      5-min Rain = 0
KMC4 091838Z 06005KT 08/00 A3038 RMK A01 T00780003  RH  059%=      5-min Rain = 0
KMC4 091839Z 06006KT 08/00 A3038 RMK A01 T00780003  RH  059%=      5-min Rain = 0
KMC4 091840Z 06004KT 08/01 A3038 RMK A01 T00780005  RH  060%=      5-min Rain = 0
KMC4 091841Z 08001KT 08/01 A3038 RMK A01 T00780005  RH  060%=      5-min Rain = 0
KMC4 091842Z 07003KT 08/00 A3038 RMK A01 T00780003  RH  059%=      5-min Rain = 0
KMC4 091843Z 07005KT 08/00 A3038 RMK A01 T00780004  RH  060%=      5-min Rain = 0
KMC4 091844Z 06004KT 08/00 A3038 RMK A01 T00780002  RH  059%=      5-min Rain = 0
KMC4 091845Z 09005KT 08/01 A3038 RMK A01 T00790005  RH  060%=      5-min Rain = 0
KMC4 091846Z 10005KT 08/00 A3038 RMK A01 T00790003  RH  059%=      5-min Rain = 0
KMC4 091847Z 10005KT 08/00 A3038 RMK A01 T00790004  RH  059%=      5-min Rain = 0
KMC4 091848Z 09005KT 08/00 A3038 RMK A01 T00790004  RH  059%=      5-min Rain = 0
KMC4 091849Z 08005KT 08/00 A3038 RMK A01 T00800004  RH  059%=      5-min Rain = 0
KMC4 091850Z 09003KT 08/00 A3038 RMK A01 T00800001  RH  057%=      5-min Rain = 0
KMC4 091851Z 08002KT 08/00 A3038 RMK A01 T00800002  RH  058%=      5-min Rain = 0
KMC4 091852Z 10003KT 08/00 A3038 RMK A01 T00800003  RH  058%=      5-min Rain = 0
KMC4 091853Z 09005KT 08/01 A3037 RMK A01 T00820008  RH  059%=      5-min Rain = 0
KMC4 091854Z 09005KT 09/01 A3037 RMK A01 T00850008  RH  058%=      5-min Rain = 0
KMC4 091855Z 08003KT 08/00 A3037 RMK A01 T00840004  RH  057%=      5-min Rain = 0
KMC4 091856Z 07005KT 08/01 A3037 RMK A01 T00840006  RH  058%=      5-min Rain = 0
KMC4 091857Z 07004KT 08/01 A3037 RMK A01 T00830006  RH  058%=      5-min Rain = 0
KMC4 091858Z 06002KT 08/01 A3037 RMK A01 T00830007  RH  059%=      5-min Rain = 0
KMC4 091859Z 07002KT 08/01 A3037 RMK A01 T00830008  RH  059%=      5-min Rain = 0
KMC4 091900Z 11003KT 09/01 A3037 RMK A01 T00860012  RH  059%=      5-min Rain = 0
KMC4 091901Z 11005KT 09/01 A3037 RMK A01 T00880007  RH  057%=      5-min Rain = 0
KMC4 091902Z 10005KT 09/01 A3037 RMK A01 T00890009  RH  057%=      5-min Rain = 0
KMC4 091903Z 08005KT 09/01 A3037 RMK A01 T00900009  RH  057%=      5-min Rain = 0
KMC4 091904Z 03003KT 09/01 A3037 RMK A01 T00900014  RH  059%=      5-min Rain = 0
KMC4 091905Z 04003KT 09/01 A3037 RMK A01 T00910012  RH  058%=      5-min Rain = 0
KMC4 091906Z 08001KT 09/01 A3037 RMK A01 T00910009  RH  056%=      5-min Rain = 0
KMC4 091907Z 03002KT 09/01 A3037 RMK A01 T00910009  RH  056%=      5-min Rain = 0
KMC4 091908Z 04004KT 09/01 A3037 RMK A01 T00900009  RH  057%=      5-min Rain = 0
KMC4 091909Z 03006KT 09/01 A3037 RMK A01 T00900014  RH  059%=      5-min Rain = 0
KMC4 091910Z 02006KT 09/02 A3037 RMK A01 T00920017  RH  059%=      5-min Rain = 0
KMC4 091911Z 02006KT 09/01 A3036 RMK A01 T00920014  RH  058%=      5-min Rain = 0
KMC4 091912Z 03005KT 09/01 A3036 RMK A01 T00910013  RH  058%=      5-min Rain = 0
KMC4 091913Z 04003KT 09/01 A3037 RMK A01 T00900010  RH  057%=      5-min Rain = 0
KMC4 091914Z 06003KT 09/01 A3036 RMK A01 T00900010  RH  058%=      5-min Rain = 0
KMC4 091915Z 04004KT 09/01 A3036 RMK A01 T00890010  RH  057%=      5-min Rain = 0
KMC4 091916Z 06003KT 09/01 A3036 RMK A01 T00890012  RH  058%=      5-min Rain = 0
KMC4 091917Z 09003KT 09/02 A3036 RMK A01 T00900015  RH  059%=      5-min Rain = 0
KMC4 091918Z 08002KT 09/02 A3036 RMK A01 T00910016  RH  059%=      5-min Rain = 0
KMC4 091919Z 05005KT 09/02 A3036 RMK A01 T00930018  RH  059%=      5-min Rain = 0
KMC4 091920Z 04005KT 09/01 A3036 RMK A01 T00940013  RH  057%=      5-min Rain = 0
KMC4 091921Z 06002KT 09/01 A3036 RMK A01 T00920010  RH  057%=      5-min Rain = 0
KMC4 091922Z 05002KT 09/01 A3036 RMK A01 T00910010  RH  057%=      5-min Rain = 0
KMC4 091923Z 05001KT 09/02 A3036 RMK A01 T00930018  RH  059%=      5-min Rain = 0
KMC4 091924Z 36002KT 10/02 A3036 RMK A01 T00950018  RH  059%=      5-min Rain = 0
KMC4 091925Z 34003KT 10/02 A3036 RMK A01 T00960015  RH  057%=      5-min Rain = 0
KMC4 091926Z 34004KT 10/02 A3036 RMK A01 T00950017  RH  058%=      5-min Rain = 0
KMC4 091927Z 00001KT 09/02 A3036 RMK A01 T00940015  RH  058%=      5-min Rain = 0
KMC4 091928Z 08003KT 09/01 A3036 RMK A01 T00930012  RH  057%=      5-min Rain = 0
KMC4 091929Z 08003KT 09/01 A3036 RMK A01 T00930014  RH  058%=      5-min Rain = 0
KMC4 091930Z 09005KT 09/02 A3036 RMK A01 T00940016  RH  058%=      5-min Rain = 0
KMC4 091931Z 02006KT 09/02 A3036 RMK A01 T00940017  RH  059%=      5-min Rain = 0
KMC4 091932Z 01004KT 09/01 A3036 RMK A01 T00930014  RH  058%=      5-min Rain = 0
KMC4 091933Z 35005KT 09/01 A3036 RMK A01 T00910013  RH  058%=      5-min Rain = 0
KMC4 091934Z 04003KT 09/02 A3036 RMK A01 T00910017  RH  060%=      5-min Rain = 0
KMC4 091935Z 06005KT 09/02 A3036 RMK A01 T00930020  RH  060%=      5-min Rain = 0
KMC4 091936Z 08006KT 09/02 A3036 RMK A01 T00930015  RH  058%=      5-min Rain = 0
KMC4 091937Z 08007KT 09/02 A3036 RMK A01 T00910015  RH  059%=      5-min Rain = 0
KMC4 091938Z 09004KT 09/01 A3036 RMK A01 T00900012  RH  058%=      5-min Rain = 0
KMC4 091939Z 07004KT 09/01 A3036 RMK A01 T00880011  RH  059%=      5-min Rain = 0
KMC4 091940Z 06006KT 09/02 A3036 RMK A01 T00870017  RH  061%=      5-min Rain = 0
KMC4 091941Z 04004KT 09/02 A3036 RMK A01 T00890015  RH  060%=      5-min Rain = 0
KMC4 091942Z 32001KT 09/01 A3036 RMK A01 T00880009  RH  058%=      5-min Rain = 0
KMC4 091943Z 23000KT 09/01 A3035 RMK A01 T00870009  RH  058%=      5-min Rain = 0
KMC4 091944Z 05004KT 09/01 A3035 RMK A01 T00860012  RH  060%=      5-min Rain = 0
KMC4 091945Z 05004KT 09/01 A3035 RMK A01 T00860010  RH  059%=      5-min Rain = 0
KMC4 091946Z 04004KT 09/01 A3035 RMK A01 T00860011  RH  059%=      5-min Rain = 0
KMC4 091947Z 05005KT 09/01 A3035 RMK A01 T00860013  RH  060%=      5-min Rain = 0
KMC4 091948Z 06003KT 09/01 A3035 RMK A01 T00860011  RH  059%=      5-min Rain = 0
KMC4 091949Z 08003KT 09/01 A3035 RMK A01 T00870012  RH  059%=      5-min Rain = 0
KMC4 091950Z 08002KT 09/01 A3035 RMK A01 T00870010  RH  059%=      5-min Rain = 0
KMC4 091951Z 08003KT 09/01 A3035 RMK A01 T00870010  RH  058%=      5-min Rain = 0
KMC4 091952Z 11001KT 09/01 A3035 RMK A01 T00870011  RH  059%=      5-min Rain = 0
KMC4 091953Z 13001KT 09/01 A3035 RMK A01 T00880010  RH  058%=      5-min Rain = 0
KMC4 091954Z 11001KT 09/01 A3035 RMK A01 T00900012  RH  058%=      5-min Rain = 0
KMC4 091955Z 06001KT 09/01 A3035 RMK A01 T00930012  RH  057%=      5-min Rain = 0
KMC4 091956Z 04001KT 10/01 A3035 RMK A01 T00950014  RH  057%=      5-min Rain = 0
KMC4 091957Z 06001KT 10/02 A3035 RMK A01 T00970016  RH  057%=      5-min Rain = 0
KMC4 091958Z 09003KT 10/02 A3035 RMK A01 T00990020  RH  058%=      5-min Rain = 0
KMC4 091959Z 08004KT 10/02 A3035 RMK A01 T01010018  RH  056%=      5-min Rain = 0
KMC4 092000Z 08006KT 10/01 A3035 RMK A01 T00990013  RH  055%=      5-min Rain = 0
KMC4 092001Z 06004KT 10/02 A3035 RMK A01 T00980017  RH  057%=      5-min Rain = 0
KMC4 092002Z 08004KT 10/02 A3035 RMK A01 T00980017  RH  057%=      5-min Rain = 0
KMC4 092003Z 08005KT 10/01 A3035 RMK A01 T00970014  RH  056%=      5-min Rain = 0
KMC4 092004Z 07007KT 10/01 A3035 RMK A01 T00960014  RH  056%=      5-min Rain = 0
KMC4 092005Z 07009KT 10/01 A3035 RMK A01 T00950014  RH  057%=      5-min Rain = 0
KMC4 092006Z 09005KT 09/01 A3035 RMK A01 T00930012  RH  057%=      5-min Rain = 0
KMC4 092007Z 09005KT 09/02 A3035 RMK A01 T00930015  RH  058%=      5-min Rain = 0
KMC4 092008Z 05005KT 09/02 A3035 RMK A01 T00940020  RH  060%=      5-min Rain = 0
KMC4 092009Z 03005KT 10/02 A3035 RMK A01 T00970021  RH  059%=      5-min Rain = 0
KMC4 092010Z 06005KT 10/02 A3035 RMK A01 T00990021  RH  058%=      5-min Rain = 0
KMC4 092011Z 08005KT 10/02 A3035 RMK A01 T00990018  RH  057%=      5-min Rain = 0
KMC4 092012Z 08007KT 10/02 A3035 RMK A01 T00990018  RH  057%=      5-min Rain = 0
KMC4 092013Z 06006KT 10/02 A3035 RMK A01 T00980016  RH  057%=      5-min Rain = 0
KMC4 092014Z 06006KT 10/02 A3035 RMK A01 T00970020  RH  059%=      5-min Rain = 0
KMC4 092015Z 07006KT 10/02 A3035 RMK A01 T01000023  RH  059%=      5-min Rain = 0
KMC4 092016Z 06005KT 10/02 A3035 RMK A01 T00990015  RH  056%=      5-min Rain = 0
KMC4 092017Z 11004KT 10/01 A3035 RMK A01 T00970013  RH  056%=      5-min Rain = 0
KMC4 092018Z 07003KT 10/02 A3035 RMK A01 T00960015  RH  057%=      5-min Rain = 0
KMC4 092019Z 06004KT 10/02 A3034 RMK A01 T00970017  RH  057%=      5-min Rain = 0
KMC4 092020Z 04006KT 10/02 A3035 RMK A01 T01000022  RH  058%=      5-min Rain = 0
KMC4 092021Z 02008KT 10/02 A3035 RMK A01 T01010020  RH  057%=      5-min Rain = 0
KMC4 092022Z 02008KT 10/02 A3034 RMK A01 T01000019  RH  057%=      5-min Rain = 0
KMC4 092023Z 01006KT 10/03 A3034 RMK A01 T01000025  RH  060%=      5-min Rain = 0
KMC4 092024Z 00008KT 10/03 A3034 RMK A01 T01020026  RH  059%=      5-min Rain = 0
KMC4 092025Z 01007KT 10/02 A3034 RMK A01 T01010020  RH  057%=      5-min Rain = 0
KMC4 092026Z 00005KT 10/02 A3034 RMK A01 T01000021  RH  058%=      5-min Rain = 0
KMC4 092027Z 02007KT 10/02 A3034 RMK A01 T00990019  RH  058%=      5-min Rain = 0
KMC4 092028Z 00006KT 10/02 A3034 RMK A01 T00980021  RH  059%=      5-min Rain = 0
KMC4 092029Z 01008KT 10/02 A3034 RMK A01 T00990018  RH  057%=      5-min Rain = 0
KMC4 092030Z 36008KT 10/02 A3034 RMK A01 T00980021  RH  058%=      5-min Rain = 0
KMC4 092031Z 00008KT 10/02 A3034 RMK A01 T00980017  RH  057%=      5-min Rain = 0
KMC4 092032Z 01006KT 10/02 A3035 RMK A01 T00960016  RH  057%=      5-min Rain = 0
KMC4 092033Z 02005KT 10/02 A3035 RMK A01 T00960019  RH  059%=      5-min Rain = 0
KMC4 092034Z 01004KT 10/02 A3035 RMK A01 T00960017  RH  058%=      5-min Rain = 0
KMC4 092035Z 35004KT 10/02 A3035 RMK A01 T00960018  RH  058%=      5-min Rain = 0
KMC4 092036Z 33005KT 10/02 A3035 RMK A01 T00970017  RH  058%=      5-min Rain = 0
KMC4 092037Z 34003KT 10/02 A3035 RMK A01 T00970019  RH  058%=      5-min Rain = 0
KMC4 092038Z 34005KT 10/02 A3035 RMK A01 T00990020  RH  058%=      5-min Rain = 0
KMC4 092039Z 03005KT 10/03 A3035 RMK A01 T01010025  RH  059%=      5-min Rain = 0
KMC4 092040Z 02005KT 10/02 A3035 RMK A01 T01020021  RH  057%=      5-min Rain = 0
KMC4 092041Z 03006KT 10/02 A3035 RMK A01 T01000020  RH  057%=      5-min Rain = 0
KMC4 092042Z 05006KT 10/02 A3034 RMK A01 T00990022  RH  058%=      5-min Rain = 0
KMC4 092043Z 03006KT 10/02 A3034 RMK A01 T00990019  RH  057%=      5-min Rain = 0
KMC4 092044Z 01003KT 10/02 A3035 RMK A01 T00980016  RH  057%=      5-min Rain = 0
KMC4 092045Z 04004KT 10/02 A3034 RMK A01 T00970017  RH  057%=      5-min Rain = 0
KMC4 092046Z 03007KT 10/02 A3034 RMK A01 T00960020  RH  059%=      5-min Rain = 0
KMC4 092047Z 34007KT 10/02 A3034 RMK A01 T00960021  RH  060%=      5-min Rain = 0
KMC4 092048Z 33005KT 10/02 A3035 RMK A01 T00960021  RH  059%=      5-min Rain = 0
KMC4 092049Z 32005KT 10/02 A3034 RMK A01 T00960023  RH  060%=      5-min Rain = 0
KMC4 092050Z 34007KT 10/02 A3034 RMK A01 T00970023  RH  060%=      5-min Rain = 0
KMC4 092051Z 35008KT 10/02 A3034 RMK A01 T00970023  RH  060%=      5-min Rain = 0
KMC4 092052Z 34007KT 10/02 A3034 RMK A01 T00960021  RH  059%=      5-min Rain = 0
KMC4 092053Z 35006KT 10/02 A3034 RMK A01 T00950020  RH  060%=      5-min Rain = 0
KMC4 092054Z 34005KT 09/02 A3034 RMK A01 T00940018  RH  059%=      5-min Rain = 0
KMC4 092055Z 32003KT 09/02 A3034 RMK A01 T00930017  RH  059%=      5-min Rain = 0
KMC4 092056Z 30003KT 09/02 A3034 RMK A01 T00930019  RH  060%=      5-min Rain = 0
KMC4 092057Z 29003KT 09/02 A3034 RMK A01 T00930018  RH  059%=      5-min Rain = 0
KMC4 092058Z 29002KT 09/02 A3034 RMK A01 T00930019  RH  060%=      5-min Rain = 0
KMC4 092059Z 36001KT 09/02 A3034 RMK A01 T00930017  RH  059%=      5-min Rain = 0
KMC4 092100Z 02004KT 09/02 A3034 RMK A01 T00930018  RH  059%=      5-min Rain = 0
KMC4 092101Z 02005KT 09/02 A3034 RMK A01 T00940018  RH  059%=      5-min Rain = 0
KMC4 092102Z 01005KT 09/02 A3034 RMK A01 T00940022  RH  061%=      5-min Rain = 0
KMC4 092103Z 01006KT 10/02 A3034 RMK A01 T00950020  RH  059%=      5-min Rain = 0
KMC4 092104Z 02005KT 10/02 A3034 RMK A01 T00950017  RH  058%=      5-min Rain = 0
KMC4 092105Z 01004KT 09/02 A3034 RMK A01 T00940016  RH  058%=      5-min Rain = 0
KMC4 092106Z 03005KT 09/02 A3034 RMK A01 T00930018  RH  059%=      5-min Rain = 0
KMC4 092107Z 03004KT 09/02 A3034 RMK A01 T00930020  RH  060%=      5-min Rain = 0
KMC4 092108Z 02002KT 09/02 A3034 RMK A01 T00930016  RH  058%=      5-min Rain = 0
KMC4 092109Z 05003KT 09/02 A3034 RMK A01 T00940019  RH  059%=      5-min Rain = 0
KMC4 092110Z 09001KT 10/02 A3034 RMK A01 T00950017  RH  058%=      5-min Rain = 0
KMC4 092111Z 20000KT 10/02 A3034 RMK A01 T00960016  RH  057%=      5-min Rain = 0
KMC4 092112Z 32001KT 10/02 A3034 RMK A01 T00980016  RH  057%=      5-min Rain = 0
KMC4 092113Z 32003KT 10/02 A3034 RMK A01 T00990019  RH  057%=      5-min Rain = 0
KMC4 092114Z 30003KT 10/02 A3034 RMK A01 T00990018  RH  057%=      5-min Rain = 0
KMC4 092115Z 29003KT 10/02 A3034 RMK A01 T00990018  RH  057%=      5-min Rain = 0
KMC4 092116Z 28002KT 10/02 A3034 RMK A01 T01000018  RH  057%=      5-min Rain = 0
KMC4 092117Z 25003KT 10/02 A3034 RMK A01 T01000015  RH  055%=      5-min Rain = 0
KMC4 092118Z 24003KT 10/02 A3034 RMK A01 T01000015  RH  055%=      5-min Rain = 0
KMC4 092119Z 25002KT 10/02 A3034 RMK A01 T01000016  RH  056%=      5-min Rain = 0
KMC4 092120Z 26000KT 10/02 A3034 RMK A01 T01010019  RH  057%=      5-min Rain = 0
KMC4 092121Z 00000KT 10/02 A3034 RMK A01 T01030019  RH  056%=      5-min Rain = 0
KMC4 092122Z 00000KT 11/02 A3034 RMK A01 T01060019  RH  055%=      5-min Rain = 0
KMC4 092123Z 00000KT 11/02 A3034 RMK A01 T01070022  RH  056%=      5-min Rain = 0
KMC4 092124Z 21001KT 11/03 A3034 RMK A01 T01080027  RH  057%=      5-min Rain = 0
KMC4 092125Z 26002KT 11/03 A3034 RMK A01 T01080025  RH  056%=      5-min Rain = 0
KMC4 092126Z 25001KT 11/02 A3034 RMK A01 T01080019  RH  054%=      5-min Rain = 0
KMC4 092127Z 20001KT 11/02 A3034 RMK A01 T01080018  RH  054%=      5-min Rain = 0
KMC4 092128Z 33000KT 11/02 A3034 RMK A01 T01080020  RH  055%=      5-min Rain = 0
KMC4 092129Z 00002KT 11/02 A3034 RMK A01 T01090020  RH  054%=      5-min Rain = 0
KMC4 092130Z 08002KT 11/02 A3034 RMK A01 T01090023  RH  056%=      5-min Rain = 0
KMC4 092131Z 02001KT 11/02 A3034 RMK A01 T01080020  RH  055%=      5-min Rain = 0
KMC4 092132Z 02004KT 11/02 A3034 RMK A01 T01080022  RH  056%=      5-min Rain = 0
KMC4 092133Z 00004KT 11/03 A3034 RMK A01 T01070025  RH  057%=      5-min Rain = 0
KMC4 092134Z 01003KT 11/02 A3034 RMK A01 T01070024  RH  057%=      5-min Rain = 0
KMC4 092135Z 01004KT 11/02 A3034 RMK A01 T01060021  RH  056%=      5-min Rain = 0
KMC4 092136Z 34005KT 11/02 A3034 RMK A01 T01050018  RH  055%=      5-min Rain = 0
KMC4 092137Z 34005KT 10/02 A3034 RMK A01 T01030019  RH  056%=      5-min Rain = 0
KMC4 092138Z 01003KT 10/02 A3034 RMK A01 T01020018  RH  056%=      5-min Rain = 0
KMC4 092139Z 01002KT 10/02 A3034 RMK A01 T01010018  RH  056%=      5-min Rain = 0
KMC4 092140Z 01006KT 10/02 A3034 RMK A01 T01010021  RH  058%=      5-min Rain = 0
KMC4 092141Z 01003KT 10/02 A3034 RMK A01 T01020019  RH  057%=      5-min Rain = 0
KMC4 092142Z 05001KT 10/02 A3034 RMK A01 T01020020  RH  057%=      5-min Rain = 0
KMC4 092143Z 35001KT 10/02 A3034 RMK A01 T01020019  RH  057%=      5-min Rain = 0
KMC4 092144Z 03004KT 10/02 A3034 RMK A01 T01020022  RH  058%=      5-min Rain = 0
KMC4 092145Z 01004KT 10/02 A3034 RMK A01 T01030023  RH  058%=      5-min Rain = 0
KMC4 092146Z 06003KT 10/02 A3034 RMK A01 T01030020  RH  056%=      5-min Rain = 0
KMC4 092147Z 02005KT 10/02 A3034 RMK A01 T01020021  RH  057%=      5-min Rain = 0
KMC4 092148Z 36006KT 10/02 A3034 RMK A01 T01020020  RH  057%=      5-min Rain = 0
KMC4 092149Z 35005KT 10/02 A3033 RMK A01 T01020020  RH  057%=      5-min Rain = 0
KMC4 092150Z 32007KT 10/03 A3033 RMK A01 T01030025  RH  059%=      5-min Rain = 0
KMC4 092151Z 33006KT 10/03 A3033 RMK A01 T01040028  RH  059%=      5-min Rain = 0
KMC4 092152Z 34005KT 11/03 A3033 RMK A01 T01050025  RH  058%=      5-min Rain = 0
KMC4 092153Z 32005KT 10/02 A3033 RMK A01 T01030022  RH  057%=      5-min Rain = 0
KMC4 092154Z 31004KT 10/03 A3033 RMK A01 T01030025  RH  059%=      5-min Rain = 0
KMC4 092155Z 33003KT 10/03 A3033 RMK A01 T01030025  RH  058%=      5-min Rain = 0
KMC4 092156Z 35004KT 10/03 A3033 RMK A01 T01040025  RH  058%=      5-min Rain = 0
KMC4 092157Z 33005KT 10/02 A3033 RMK A01 T01040021  RH  057%=      5-min Rain = 0
KMC4 092158Z 33003KT 10/02 A3033 RMK A01 T01030018  RH  056%=      5-min Rain = 0
KMC4 092159Z 33004KT 10/02 A3033 RMK A01 T01020019  RH  056%=      5-min Rain = 0
KMC4 092200Z 34006KT 10/02 A3033 RMK A01 T01020022  RH  058%=      5-min Rain = 0
KMC4 092201Z 33006KT 10/02 A3033 RMK A01 T01020019  RH  057%=      5-min Rain = 0
KMC4 092202Z 33007KT 10/02 A3033 RMK A01 T01020020  RH  057%=      5-min Rain = 0
KMC4 092203Z 31007KT 10/02 A3033 RMK A01 T01020022  RH  058%=      5-min Rain = 0
KMC4 092204Z 32006KT 10/02 A3033 RMK A01 T01020022  RH  058%=      5-min Rain = 0
KMC4 092205Z 33006KT 10/02 A3033 RMK A01 T01030021  RH  057%=      5-min Rain = 0
KMC4 092206Z 34006KT 10/02 A3033 RMK A01 T01020022  RH  057%=      5-min Rain = 0
KMC4 092207Z 35005KT 10/02 A3033 RMK A01 T01020020  RH  057%=      5-min Rain = 0
KMC4 092208Z 01004KT 10/02 A3033 RMK A01 T01010016  RH  056%=      5-min Rain = 0
KMC4 092209Z 02003KT 10/02 A3033 RMK A01 T01000016  RH  056%=      5-min Rain = 0
KMC4 092210Z 34004KT 10/02 A3033 RMK A01 T01000020  RH  057%=      5-min Rain = 0
KMC4 092211Z 35004KT 10/02 A3033 RMK A01 T01010023  RH  058%=      5-min Rain = 0
KMC4 092212Z 01004KT 10/02 A3033 RMK A01 T01010020  RH  057%=      5-min Rain = 0
KMC4 092213Z 01005KT 10/02 A3033 RMK A01 T01010021  RH  057%=      5-min Rain = 0
KMC4 092214Z 01005KT 10/02 A3033 RMK A01 T01020021  RH  057%=      5-min Rain = 0
KMC4 092215Z 01005KT 10/02 A3033 RMK A01 T01020018  RH  056%=      5-min Rain = 0
KMC4 092216Z 01005KT 10/02 A3034 RMK A01 T01010017  RH  056%=      5-min Rain = 0
KMC4 092217Z 36005KT 10/02 A3034 RMK A01 T01010019  RH  057%=      5-min Rain = 0
KMC4 092218Z 34006KT 10/02 A3034 RMK A01 T01010018  RH  057%=      5-min Rain = 0
KMC4 092219Z 33007KT 10/02 A3034 RMK A01 T01010021  RH  058%=      5-min Rain = 0
KMC4 092220Z 33006KT 10/02 A3034 RMK A01 T01010020  RH  057%=      5-min Rain = 0
KMC4 092221Z 33006KT 10/02 A3034 RMK A01 T01000020  RH  057%=      5-min Rain = 0
KMC4 092222Z 34005KT 10/02 A3034 RMK A01 T01000021  RH  058%=      5-min Rain = 0
KMC4 092223Z 34004KT 10/02 A3034 RMK A01 T01010020  RH  057%=      5-min Rain = 0
KMC4 092224Z 35004KT 10/02 A3034 RMK A01 T01010022  RH  058%=      5-min Rain = 0
KMC4 092225Z 34004KT 10/02 A3034 RMK A01 T01000018  RH  057%=      5-min Rain = 0
KMC4 092226Z 34003KT 10/02 A3034 RMK A01 T01000017  RH  056%=      5-min Rain = 0
KMC4 092227Z 33005KT 10/02 A3034 RMK A01 T01010019  RH  057%=      5-min Rain = 0
KMC4 092228Z 32004KT 10/02 A3034 RMK A01 T01000018  RH  057%=      5-min Rain = 0
KMC4 092229Z 34004KT 10/02 A3034 RMK A01 T01010022  RH  058%=      5-min Rain = 0
KMC4 092230Z 33007KT 10/02 A3034 RMK A01 T01010021  RH  058%=      5-min Rain = 0
KMC4 092231Z 34005KT 10/02 A3034 RMK A01 T01010020  RH  057%=      5-min Rain = 0
KMC4 092232Z 34005KT 10/02 A3034 RMK A01 T01010021  RH  057%=      5-min Rain = 0
KMC4 092233Z 36004KT 10/02 A3034 RMK A01 T01010019  RH  057%=      5-min Rain = 0
KMC4 092234Z 01004KT 10/02 A3034 RMK A01 T01010019  RH  057%=      5-min Rain = 0
KMC4 092235Z 35005KT 10/02 A3034 RMK A01 T01010018  RH  056%=      5-min Rain = 0
KMC4 092236Z 33004KT 10/02 A3034 RMK A01 T01000015  RH  056%=      5-min Rain = 0
KMC4 092237Z 31004KT 10/02 A3034 RMK A01 T01000017  RH  056%=      5-min Rain = 0
KMC4 092238Z 31004KT 10/02 A3034 RMK A01 T01000020  RH  058%=      5-min Rain = 0
KMC4 092239Z 32004KT 10/02 A3034 RMK A01 T01000020  RH  057%=      5-min Rain = 0
KMC4 092240Z 32003KT 10/02 A3034 RMK A01 T01010022  RH  058%=      5-min Rain = 0
KMC4 092241Z 32004KT 10/02 A3034 RMK A01 T01020020  RH  057%=      5-min Rain = 0
KMC4 092242Z 32004KT 10/02 A3034 RMK A01 T01020018  RH  056%=      5-min Rain = 0
KMC4 092243Z 32004KT 10/02 A3034 RMK A01 T01010016  RH  055%=      5-min Rain = 0
KMC4 092244Z 32003KT 10/02 A3034 RMK A01 T01010016  RH  055%=      5-min Rain = 0
KMC4 092245Z 34003KT 10/02 A3034 RMK A01 T01010018  RH  056%=      5-min Rain = 0
KMC4 092246Z 34003KT 10/02 A3034 RMK A01 T01010017  RH  056%=      5-min Rain = 0
KMC4 092247Z 33004KT 10/02 A3034 RMK A01 T01010017  RH  056%=      5-min Rain = 0
KMC4 092248Z 34004KT 10/02 A3034 RMK A01 T01000017  RH  056%=      5-min Rain = 0
KMC4 092249Z 33005KT 10/02 A3034 RMK A01 T01000017  RH  056%=      5-min Rain = 0
KMC4 092250Z 34003KT 10/02 A3034 RMK A01 T01000018  RH  057%=      5-min Rain = 0
KMC4 092251Z 01006KT 10/02 A3034 RMK A01 T01000017  RH  057%=      5-min Rain = 0
KMC4 092252Z 02006KT 10/02 A3034 RMK A01 T01000015  RH  056%=      5-min Rain = 0
KMC4 092253Z 01006KT 10/02 A3034 RMK A01 T00990017  RH  056%=      5-min Rain = 0
KMC4 092254Z 02005KT 10/01 A3034 RMK A01 T00990014  RH  056%=      5-min Rain = 0
KMC4 092255Z 02004KT 10/01 A3034 RMK A01 T00990014  RH  056%=      5-min Rain = 0
KMC4 092256Z 03005KT 10/02 A3034 RMK A01 T00980016  RH  056%=      5-min Rain = 0
KMC4 092257Z 02005KT 10/02 A3034 RMK A01 T00980019  RH  058%=      5-min Rain = 0
KMC4 092258Z 03004KT 10/02 A3034 RMK A01 T00980018  RH  057%=      5-min Rain = 0
KMC4 092259Z 03004KT 10/02 A3034 RMK A01 T00980016  RH  057%=      5-min Rain = 0
KMC4 092300Z 02004KT 10/02 A3034 RMK A01 T00970017  RH  057%=      5-min Rain = 0
KMC4 092301Z 01003KT 10/02 A3034 RMK A01 T00970016  RH  057%=      5-min Rain = 0
KMC4 092302Z 00003KT 10/01 A3034 RMK A01 T00970014  RH  056%=      5-min Rain = 0
KMC4 092303Z 01003KT 10/01 A3034 RMK A01 T00970013  RH  056%=      5-min Rain = 0
KMC4 092304Z 35003KT 10/01 A3034 RMK A01 T00970013  RH  056%=      5-min Rain = 0
KMC4 092305Z 33003KT 10/01 A3034 RMK A01 T00970014  RH  056%=      5-min Rain = 0
KMC4 092306Z 33005KT 10/02 A3034 RMK A01 T00970016  RH  057%=      5-min Rain = 0
KMC4 092307Z 33006KT 10/02 A3034 RMK A01 T00970019  RH  058%=      5-min Rain = 0
KMC4 092308Z 34005KT 10/02 A3034 RMK A01 T00970019  RH  058%=      5-min Rain = 0
KMC4 092309Z 34004KT 10/02 A3034 RMK A01 T00970018  RH  058%=      5-min Rain = 0
KMC4 092310Z 34005KT 10/02 A3034 RMK A01 T00960018  RH  058%=      5-min Rain = 0
KMC4 092311Z 33005KT 10/02 A3034 RMK A01 T00970019  RH  058%=      5-min Rain = 0
KMC4 092312Z 34004KT 10/02 A3034 RMK A01 T00970021  RH  059%=      5-min Rain = 0
KMC4 092313Z 35005KT 10/02 A3034 RMK A01 T00960019  RH  059%=      5-min Rain = 0
KMC4 092314Z 34005KT 10/02 A3034 RMK A01 T00960017  RH  058%=      5-min Rain = 0
KMC4 092315Z 35005KT 10/02 A3034 RMK A01 T00950016  RH  058%=      5-min Rain = 0
KMC4 092316Z 35005KT 10/02 A3034 RMK A01 T00950016  RH  058%=      5-min Rain = 0
KMC4 092317Z 35004KT 10/02 A3034 RMK A01 T00950016  RH  058%=      5-min Rain = 0
KMC4 092318Z 35004KT 10/02 A3034 RMK A01 T00950017  RH  058%=      5-min Rain = 0
KMC4 092319Z 34004KT 09/02 A3034 RMK A01 T00940017  RH  058%=      5-min Rain = 0
KMC4 092320Z 34005KT 09/02 A3034 RMK A01 T00940019  RH  059%=      5-min Rain = 0
KMC4 092321Z 35005KT 09/02 A3034 RMK A01 T00940019  RH  059%=      5-min Rain = 0
KMC4 092322Z 35005KT 09/02 A3034 RMK A01 T00940018  RH  059%=      5-min Rain = 0
KMC4 092323Z 35005KT 09/02 A3034 RMK A01 T00930018  RH  059%=      5-min Rain = 0
KMC4 092324Z 35004KT 09/02 A3034 RMK A01 T00930018  RH  059%=      5-min Rain = 0
KMC4 092325Z 35005KT 09/02 A3034 RMK A01 T00930017  RH  059%=      5-min Rain = 0
KMC4 092326Z 35005KT 09/02 A3034 RMK A01 T00930017  RH  059%=      5-min Rain = 0
KMC4 092327Z 00004KT 09/02 A3034 RMK A01 T00930017  RH  059%=      5-min Rain = 0
KMC4 092328Z 01004KT 09/02 A3035 RMK A01 T00920017  RH  059%=      5-min Rain = 0
KMC4 092329Z 01005KT 09/02 A3034 RMK A01 T00920016  RH  059%=      5-min Rain = 0
KMC4 092330Z 01005KT 09/02 A3035 RMK A01 T00920016  RH  059%=      5-min Rain = 0
KMC4 092331Z 02005KT 09/02 A3035 RMK A01 T00910017  RH  060%=      5-min Rain = 0
KMC4 092332Z 00005KT 09/02 A3035 RMK A01 T00910017  RH  060%=      5-min Rain = 0
KMC4 092333Z 01004KT 09/02 A3035 RMK A01 T00910016  RH  059%=      5-min Rain = 0
KMC4 092334Z 01004KT 09/02 A3034 RMK A01 T00900017  RH  060%=      5-min Rain = 0
KMC4 092335Z 01004KT 09/02 A3034 RMK A01 T00900017  RH  060%=      5-min Rain = 0
KMC4 092336Z 02004KT 09/02 A3034 RMK A01 T00900017  RH  060%=      5-min Rain = 0
KMC4 092337Z 02004KT 09/02 A3034 RMK A01 T00890020  RH  062%=      5-min Rain = 0
KMC4 092338Z 03005KT 09/02 A3034 RMK A01 T00880020  RH  062%=      5-min Rain = 0
KMC4 092339Z 03005KT 09/02 A3034 RMK A01 T00870019  RH  062%=      5-min Rain = 0
KMC4 092340Z 03005KT 09/02 A3034 RMK A01 T00870020  RH  063%=      5-min Rain = 0
KMC4 092341Z 03005KT 09/02 A3034 RMK A01 T00870018  RH  062%=      5-min Rain = 0
KMC4 092342Z 03004KT 09/02 A3034 RMK A01 T00870018  RH  062%=      5-min Rain = 0
KMC4 092343Z 03005KT 09/02 A3035 RMK A01 T00870019  RH  062%=      5-min Rain = 0
KMC4 092344Z 03005KT 09/02 A3035 RMK A01 T00860018  RH  062%=      5-min Rain = 0
KMC4 092345Z 03004KT 09/02 A3035 RMK A01 T00870018  RH  062%=      5-min Rain = 0
KMC4 092346Z 02004KT 09/02 A3035 RMK A01 T00860018  RH  062%=      5-min Rain = 0
KMC4 092347Z 02004KT 09/02 A3035 RMK A01 T00860019  RH  063%=      5-min Rain = 0
KMC4 092348Z 02004KT 09/02 A3035 RMK A01 T00850019  RH  063%=      5-min Rain = 0
KMC4 092349Z 01003KT 09/02 A3035 RMK A01 T00850019  RH  063%=      5-min Rain = 0
KMC4 092350Z 02003KT 08/02 A3034 RMK A01 T00840020  RH  064%=      5-min Rain = 0
KMC4 092351Z 02003KT 08/02 A3034 RMK A01 T00830021  RH  065%=      5-min Rain = 0
KMC4 092352Z 03003KT 08/02 A3034 RMK A01 T00830020  RH  065%=      5-min Rain = 0
KMC4 092353Z 02003KT 08/02 A3034 RMK A01 T00830020  RH  065%=      5-min Rain = 0
KMC4 092354Z 02004KT 08/02 A3034 RMK A01 T00820021  RH  066%=      5-min Rain = 0
KMC4 092355Z 02004KT 08/02 A3035 RMK A01 T00820021  RH  066%=      5-min Rain = 0
KMC4 092356Z 02004KT 08/02 A3035 RMK A01 T00810021  RH  066%=      5-min Rain = 0
KMC4 092357Z 02004KT 08/02 A3035 RMK A01 T00810021  RH  066%=      5-min Rain = 0
KMC4 092358Z 02003KT 08/02 A3035 RMK A01 T00800021  RH  066%=      5-min Rain = 0
KMC4 092359Z 03003KT 08/02 A3035 RMK A01 T00790022  RH  067%=      5-min Rain = 0
KMC4 100000Z 02004KT 08/02 A3035 RMK A01 T00790021  RH  067%=      5-min Rain = 0
KMC4 100001Z 02003KT 08/02 A3035 RMK A01 T00790021  RH  067%=      5-min Rain = 0
KMC4 100002Z 02003KT 08/02 A3035 RMK A01 T00790022  RH  067%=      5-min Rain = 0
KMC4 100003Z 02004KT 08/02 A3035 RMK A01 T00780022  RH  068%=      5-min Rain = 0
KMC4 100004Z 02003KT 08/02 A3035 RMK A01 T00780022  RH  068%=      5-min Rain = 0
KMC4 100005Z 03003KT 08/02 A3035 RMK A01 T00770022  RH  068%=      5-min Rain = 0
KMC4 100006Z 03003KT 08/02 A3035 RMK A01 T00770022  RH  068%=      5-min Rain = 0
KMC4 100007Z 03003KT 08/02 A3035 RMK A01 T00770022  RH  068%=      5-min Rain = 0
KMC4 100008Z 03003KT 08/02 A3035 RMK A01 T00770022  RH  068%=      5-min Rain = 0
KMC4 100009Z 03003KT 08/02 A3035 RMK A01 T00770021  RH  068%=      5-min Rain = 0
KMC4 100010Z 03003KT 08/02 A3035 RMK A01 T00770023  RH  069%=      5-min Rain = 0
KMC4 100011Z 03003KT 08/02 A3035 RMK A01 T00760023  RH  069%=      5-min Rain = 0
KMC4 100012Z 03003KT 08/02 A3035 RMK A01 T00760023  RH  069%=      5-min Rain = 0
KMC4 100013Z 04003KT 08/02 A3035 RMK A01 T00760022  RH  069%=      5-min Rain = 0
KMC4 100014Z 04003KT 08/02 A3035 RMK A01 T00760022  RH  069%=      5-min Rain = 0
KMC4 100015Z 04003KT 08/02 A3035 RMK A01 T00760023  RH  069%=      5-min Rain = 0
KMC4 100016Z 03003KT 08/02 A3035 RMK A01 T00750022  RH  069%=      5-min Rain = 0
KMC4 100017Z 04002KT 08/02 A3035 RMK A01 T00750023  RH  070%=      5-min Rain = 0
KMC4 100018Z 04002KT 08/03 A3035 RMK A01 T00750026  RH  071%=      5-min Rain = 0
KMC4 100019Z 04003KT 07/03 A3035 RMK A01 T00740026  RH  071%=      5-min Rain = 0
KMC4 100020Z 05002KT 07/02 A3035 RMK A01 T00740023  RH  070%=      5-min Rain = 0
KMC4 100021Z 04002KT 07/02 A3035 RMK A01 T00730022  RH  070%=      5-min Rain = 0
KMC4 100022Z 04003KT 07/02 A3035 RMK A01 T00730021  RH  070%=      5-min Rain = 0
KMC4 100023Z 04003KT 07/02 A3035 RMK A01 T00730022  RH  070%=      5-min Rain = 0
KMC4 100024Z 04002KT 07/02 A3035 RMK A01 T00720022  RH  070%=      5-min Rain = 0
KMC4 100025Z 04003KT 07/02 A3035 RMK A01 T00720022  RH  071%=      5-min Rain = 0
KMC4 100026Z 03002KT 07/02 A3035 RMK A01 T00720022  RH  071%=      5-min Rain = 0
KMC4 100027Z 04002KT 07/02 A3035 RMK A01 T00710024  RH  072%=      5-min Rain = 0
KMC4 100028Z 03002KT 07/03 A3035 RMK A01 T00710025  RH  072%=      5-min Rain = 0
KMC4 100029Z 04002KT 07/03 A3035 RMK A01 T00700025  RH  073%=      5-min Rain = 0
KMC4 100030Z 04002KT 07/02 A3035 RMK A01 T00700023  RH  072%=      5-min Rain = 0
KMC4 100031Z 04002KT 07/02 A3035 RMK A01 T00690022  RH  072%=      5-min Rain = 0
KMC4 100032Z 04003KT 07/02 A3035 RMK A01 T00690022  RH  071%=      5-min Rain = 0
KMC4 100033Z 03003KT 07/02 A3035 RMK A01 T00690022  RH  072%=      5-min Rain = 0
KMC4 100034Z 03004KT 07/02 A3035 RMK A01 T00690023  RH  072%=      5-min Rain = 0
KMC4 100035Z 03004KT 07/02 A3035 RMK A01 T00690024  RH  073%=      5-min Rain = 0
KMC4 100036Z 03004KT 07/02 A3035 RMK A01 T00690024  RH  073%=      5-min Rain = 0
KMC4 100037Z 03004KT 07/02 A3036 RMK A01 T00690023  RH  072%=      5-min Rain = 0
KMC4 100038Z 03004KT 07/02 A3035 RMK A01 T00690022  RH  072%=      5-min Rain = 0
KMC4 100039Z 04004KT 07/02 A3035 RMK A01 T00690022  RH  072%=      5-min Rain = 0
KMC4 100040Z 04004KT 07/02 A3035 RMK A01 T00690022  RH  072%=      5-min Rain = 0
KMC4 100041Z 04004KT 07/02 A3035 RMK A01 T00690021  RH  071%=      5-min Rain = 0
KMC4 100042Z 04005KT 07/02 A3035 RMK A01 T00690021  RH  071%=      5-min Rain = 0
KMC4 100043Z 04004KT 07/02 A3035 RMK A01 T00700022  RH  071%=      5-min Rain = 0
KMC4 100044Z 03005KT 07/02 A3035 RMK A01 T00690021  RH  071%=      5-min Rain = 0
KMC4 100045Z 04005KT 07/02 A3035 RMK A01 T00690021  RH  071%=      5-min Rain = 0
KMC4 100046Z 03005KT 07/02 A3035 RMK A01 T00690021  RH  071%=      5-min Rain = 0
KMC4 100047Z 04004KT 07/02 A3035 RMK A01 T00690021  RH  071%=      5-min Rain = 0
KMC4 100048Z 04004KT 07/02 A3035 RMK A01 T00690021  RH  072%=      5-min Rain = 0
KMC4 100049Z 04004KT 07/02 A3035 RMK A01 T00680022  RH  072%=      5-min Rain = 0
KMC4 100050Z 04003KT 07/02 A3035 RMK A01 T00680022  RH  072%=      5-min Rain = 0
KMC4 100051Z 04003KT 07/02 A3036 RMK A01 T00680022  RH  072%=      5-min Rain = 0
KMC4 100052Z 04004KT 07/02 A3036 RMK A01 T00670021  RH  072%=      5-min Rain = 0
KMC4 100053Z 04004KT 07/02 A3036 RMK A01 T00670022  RH  073%=      5-min Rain = 0
KMC4 100054Z 04003KT 07/02 A3036 RMK A01 T00670021  RH  072%=      5-min Rain = 0
KMC4 100055Z 04004KT 07/02 A3036 RMK A01 T00670021  RH  072%=      5-min Rain = 0
KMC4 100056Z 04003KT 07/02 A3036 RMK A01 T00670021  RH  073%=      5-min Rain = 0
KMC4 100057Z 04003KT 07/02 A3036 RMK A01 T00660021  RH  073%=      5-min Rain = 0
KMC4 100058Z 04003KT 07/02 A3036 RMK A01 T00660021  RH  073%=      5-min Rain = 0
KMC4 100059Z 04003KT 07/02 A3036 RMK A01 T00650022  RH  074%=      5-min Rain = 0
KMC4 100100Z 05003KT 07/02 A3036 RMK A01 T00650021  RH  074%=      5-min Rain = 0
KMC4 100101Z 04003KT 07/02 A3036 RMK A01 T00650021  RH  074%=      5-min Rain = 0
KMC4 100102Z 04003KT 07/02 A3036 RMK A01 T00650021  RH  074%=      5-min Rain = 0
KMC4 100103Z 04003KT 07/02 A3036 RMK A01 T00650022  RH  074%=      5-min Rain = 0
KMC4 100104Z 05003KT 06/02 A3036 RMK A01 T00640022  RH  074%=      5-min Rain = 0
KMC4 100105Z 04003KT 06/02 A3036 RMK A01 T00640022  RH  074%=      5-min Rain = 0
KMC4 100106Z 04004KT 06/02 A3036 RMK A01 T00630022  RH  075%=      5-min Rain = 0
KMC4 100107Z 04003KT 06/02 A3036 RMK A01 T00630021  RH  075%=      5-min Rain = 0
KMC4 100108Z 04003KT 06/02 A3036 RMK A01 T00630022  RH  075%=      5-min Rain = 0
KMC4 100109Z 04003KT 06/02 A3036 RMK A01 T00620022  RH  075%=      5-min Rain = 0
KMC4 100110Z 05003KT 06/02 A3036 RMK A01 T00620022  RH  076%=      5-min Rain = 0
KMC4 100111Z 05003KT 06/02 A3036 RMK A01 T00610022  RH  076%=      5-min Rain = 0
KMC4 100112Z 05004KT 06/02 A3036 RMK A01 T00610022  RH  076%=      5-min Rain = 0
KMC4 100113Z 05003KT 06/02 A3036 RMK A01 T00610021  RH  076%=      5-min Rain = 0
KMC4 100114Z 05003KT 06/02 A3036 RMK A01 T00610021  RH  076%=      5-min Rain = 0
KMC4 100115Z 05003KT 06/02 A3036 RMK A01 T00600022  RH  076%=      5-min Rain = 0
KMC4 100116Z 05003KT 06/02 A3036 RMK A01 T00590022  RH  077%=      5-min Rain = 0
KMC4 100117Z 05003KT 06/02 A3036 RMK A01 T00590022  RH  077%=      5-min Rain = 0
KMC4 100118Z 05003KT 06/02 A3036 RMK A01 T00590022  RH  077%=      5-min Rain = 0
KMC4 100119Z 05003KT 06/02 A3036 RMK A01 T00580022  RH  077%=      5-min Rain = 0
KMC4 100120Z 05003KT 06/02 A3036 RMK A01 T00580021  RH  077%=      5-min Rain = 0
KMC4 100121Z 05003KT 06/02 A3036 RMK A01 T00580021  RH  077%=      5-min Rain = 0
KMC4 100122Z 06003KT 06/02 A3036 RMK A01 T00580020  RH  077%=      5-min Rain = 0
KMC4 100123Z 06003KT 06/02 A3036 RMK A01 T00580020  RH  077%=      5-min Rain = 0
KMC4 100124Z 05003KT 06/02 A3036 RMK A01 T00580020  RH  077%=      5-min Rain = 0
KMC4 100125Z 06003KT 06/02 A3036 RMK A01 T00580020  RH  077%=      5-min Rain = 0
KMC4 100126Z 05002KT 06/02 A3036 RMK A01 T00580020  RH  077%=      5-min Rain = 0
KMC4 100127Z 06003KT 06/02 A3037 RMK A01 T00580020  RH  077%=      5-min Rain = 0
KMC4 100128Z 05002KT 06/02 A3037 RMK A01 T00580020  RH  077%=      5-min Rain = 0
KMC4 100129Z 05003KT 06/02 A3037 RMK A01 T00580020  RH  077%=      5-min Rain = 0
KMC4 100130Z 05003KT 06/02 A3037 RMK A01 T00580020  RH  076%=      5-min Rain = 0
KMC4 100131Z 05002KT 06/02 A3037 RMK A01 T00580020  RH  076%=      5-min Rain = 0
KMC4 100132Z 05003KT 06/02 A3037 RMK A01 T00570020  RH  077%=      5-min Rain = 0
KMC4 100133Z 05003KT 06/02 A3037 RMK A01 T00570020  RH  077%=      5-min Rain = 0
KMC4 100134Z 05003KT 06/02 A3037 RMK A01 T00570020  RH  077%=      5-min Rain = 0
KMC4 100135Z 06003KT 06/02 A3037 RMK A01 T00560020  RH  078%=      5-min Rain = 0
KMC4 100136Z 06003KT 06/02 A3037 RMK A01 T00560021  RH  078%=      5-min Rain = 0
KMC4 100137Z 06003KT 06/02 A3037 RMK A01 T00560021  RH  078%=      5-min Rain = 0
KMC4 100138Z 06002KT 06/02 A3037 RMK A01 T00560020  RH  078%=      5-min Rain = 0
KMC4 100139Z 06002KT 06/02 A3037 RMK A01 T00560020  RH  078%=      5-min Rain = 0
KMC4 100140Z 05002KT 06/02 A3037 RMK A01 T00550020  RH  078%=      5-min Rain = 0
KMC4 100141Z 06001KT 06/02 A3037 RMK A01 T00550020  RH  078%=      5-min Rain = 0
KMC4 100142Z 06001KT 05/02 A3037 RMK A01 T00540021  RH  079%=      5-min Rain = 0
KMC4 100143Z 06000KT 05/02 A3037 RMK A01 T00530021  RH  080%=      5-min Rain = 0
KMC4 100144Z 00000KT 05/02 A3037 RMK A01 T00500019  RH  080%=      5-min Rain = 0
KMC4 100145Z 23000KT 05/02 A3037 RMK A01 T00470018  RH  081%=      5-min Rain = 0
KMC4 100146Z 22001KT 04/02 A3037 RMK A01 T00440017  RH  082%=      5-min Rain = 0
KMC4 100147Z 21002KT 04/02 A3037 RMK A01 T00420016  RH  084%=      5-min Rain = 0
KMC4 100148Z 21002KT 04/02 A3037 RMK A01 T00400017  RH  085%=      5-min Rain = 0
KMC4 100149Z 21001KT 04/02 A3037 RMK A01 T00380017  RH  086%=      5-min Rain = 0
KMC4 100150Z 22000KT 04/02 A3037 RMK A01 T00370016  RH  086%=      5-min Rain = 0
KMC4 100151Z 21000KT 04/02 A3037 RMK A01 T00360017  RH  087%=      5-min Rain = 0
KMC4 100152Z 00000KT 04/02 A3037 RMK A01 T00360017  RH  087%=      5-min Rain = 0
KMC4 100153Z 00000KT 04/02 A3037 RMK A01 T00360017  RH  088%=      5-min Rain = 0
KMC4 100154Z 00000KT 04/02 A3037 RMK A01 T00350018  RH  088%=      5-min Rain = 0
KMC4 100155Z 00000KT 04/02 A3038 RMK A01 T00350018  RH  089%=      5-min Rain = 0
KMC4 100156Z 00000KT 04/02 A3038 RMK A01 T00350018  RH  089%=      5-min Rain = 0
KMC4 100157Z 00000KT 04/02 A3038 RMK A01 T00350018  RH  089%=      5-min Rain = 0
KMC4 100158Z 00000KT 04/02 A3038 RMK A01 T00350019  RH  089%=      5-min Rain = 0
KMC4 100159Z 00000KT 04/02 A3038 RMK A01 T00350019  RH  089%=      5-min Rain = 0
KMC4 100200Z 00000KT 04/02 A3038 RMK A01 T00360020  RH  089%=      5-min Rain = 0
KMC4 100201Z 00000KT 04/02 A3038 RMK A01 T00360020  RH  089%=      5-min Rain = 0
KMC4 100202Z 00000KT 04/02 A3038 RMK A01 T00360019  RH  089%=      5-min Rain = 0
KMC4 100203Z 00000KT 04/02 A3038 RMK A01 T00370019  RH  088%=      5-min Rain = 0
KMC4 100204Z 00000KT 04/02 A3038 RMK A01 T00370019  RH  088%=      5-min Rain = 0
KMC4 100205Z 00000KT 04/02 A3038 RMK A01 T00370019  RH  088%=      5-min Rain = 0
KMC4 100206Z 00000KT 04/02 A3038 RMK A01 T00370019  RH  088%=      5-min Rain = 0
KMC4 100207Z 00000KT 04/02 A3038 RMK A01 T00370019  RH  088%=      5-min Rain = 0
KMC4 100208Z 00000KT 04/02 A3038 RMK A01 T00370020  RH  089%=      5-min Rain = 0
KMC4 100209Z 00000KT 04/02 A3038 RMK A01 T00360020  RH  089%=      5-min Rain = 0
KMC4 100210Z 00000KT 04/02 A3038 RMK A01 T00360020  RH  089%=      5-min Rain = 0
KMC4 100211Z 00000KT 04/02 A3038 RMK A01 T00350019  RH  089%=      5-min Rain = 0
KMC4 100212Z 00000KT 04/02 A3038 RMK A01 T00350019  RH  089%=      5-min Rain = 0
KMC4 100213Z 00000KT 04/02 A3038 RMK A01 T00350019  RH  089%=      5-min Rain = 0
KMC4 100214Z 00000KT 04/02 A3038 RMK A01 T00350019  RH  089%=      5-min Rain = 0
KMC4 100215Z 00000KT 04/02 A3038 RMK A01 T00350019  RH  089%=      5-min Rain = 0
KMC4 100216Z 00000KT 04/02 A3038 RMK A01 T00350018  RH  089%=      5-min Rain = 0
KMC4 100217Z 00000KT 04/02 A3039 RMK A01 T00350019  RH  089%=      5-min Rain = 0
KMC4 100218Z 00000KT 04/02 A3039 RMK A01 T00350019  RH  089%=      5-min Rain = 0
KMC4 100219Z 00000KT 04/02 A3039 RMK A01 T00350019  RH  089%=      5-min Rain = 0
KMC4 100220Z 00000KT 04/02 A3039 RMK A01 T00350019  RH  089%=      5-min Rain = 0
KMC4 100221Z 00000KT 03/02 A3039 RMK A01 T00340019  RH  090%=      5-min Rain = 0
KMC4 100222Z 00000KT 03/02 A3039 RMK A01 T00340019  RH  090%=      5-min Rain = 0
KMC4 100223Z 00000KT 03/02 A3039 RMK A01 T00340019  RH  090%=      5-min Rain = 0
KMC4 100224Z 00000KT 03/02 A3039 RMK A01 T00340019  RH  090%=      5-min Rain = 0
KMC4 100225Z 00000KT 03/02 A3039 RMK A01 T00340019  RH  090%=      5-min Rain = 0
KMC4 100226Z 00000KT 03/02 A3039 RMK A01 T00340019  RH  090%=      5-min Rain = 0
KMC4 100227Z 00000KT 03/02 A3039 RMK A01 T00340019  RH  090%=      5-min Rain = 0
KMC4 100228Z 00000KT 03/02 A3039 RMK A01 T00340019  RH  089%=      5-min Rain = 0
KMC4 100229Z 33001KT 03/02 A3039 RMK A01 T00340018  RH  089%=      5-min Rain = 0
KMC4 100230Z 33001KT 04/02 A3039 RMK A01 T00350018  RH  089%=      5-min Rain = 0
KMC4 100231Z 33002KT 04/02 A3039 RMK A01 T00350018  RH  089%=      5-min Rain = 0
KMC4 100232Z 34002KT 04/02 A3039 RMK A01 T00350018  RH  089%=      5-min Rain = 0
KMC4 100233Z 35002KT 04/02 A3039 RMK A01 T00360019  RH  089%=      5-min Rain = 0
KMC4 100234Z 00002KT 04/02 A3039 RMK A01 T00360019  RH  088%=      5-min Rain = 0
KMC4 100235Z 01002KT 04/02 A3039 RMK A01 T00370019  RH  088%=      5-min Rain = 0
KMC4 100236Z 01002KT 04/02 A3039 RMK A01 T00380018  RH  087%=      5-min Rain = 0
KMC4 100237Z 01002KT 04/02 A3039 RMK A01 T00390017  RH  086%=      5-min Rain = 0
KMC4 100238Z 01002KT 04/02 A3039 RMK A01 T00400017  RH  085%=      5-min Rain = 0
KMC4 100239Z 01002KT 04/02 A3039 RMK A01 T00400017  RH  085%=      5-min Rain = 0
KMC4 100240Z 01002KT 04/02 A3039 RMK A01 T00400016  RH  084%=      5-min Rain = 0
KMC4 100241Z 01003KT 04/02 A3039 RMK A01 T00400016  RH  084%=      5-min Rain = 0
KMC4 100242Z 01002KT 04/02 A3039 RMK A01 T00400016  RH  084%=      5-min Rain = 0
KMC4 100243Z 01003KT 04/02 A3039 RMK A01 T00400016  RH  085%=      5-min Rain = 0
KMC4 100244Z 02003KT 04/02 A3039 RMK A01 T00390016  RH  085%=      5-min Rain = 0
KMC4 100245Z 02003KT 04/02 A3039 RMK A01 T00390016  RH  085%=      5-min Rain = 0
KMC4 100246Z 02003KT 04/02 A3039 RMK A01 T00380016  RH  086%=      5-min Rain = 0
KMC4 100247Z 02003KT 04/02 A3039 RMK A01 T00380016  RH  086%=      5-min Rain = 0
KMC4 100248Z 02003KT 04/02 A3039 RMK A01 T00370016  RH  086%=      5-min Rain = 0
KMC4 100249Z 02003KT 04/02 A3039 RMK A01 T00370016  RH  086%=      5-min Rain = 0
KMC4 100250Z 02003KT 04/02 A3039 RMK A01 T00370016  RH  086%=      5-min Rain = 0
KMC4 100251Z 02003KT 04/02 A3039 RMK A01 T00370016  RH  086%=      5-min Rain = 0
KMC4 100252Z 03003KT 04/02 A3039 RMK A01 T00360016  RH  086%=      5-min Rain = 0
KMC4 100253Z 03003KT 04/02 A3039 RMK A01 T00360016  RH  087%=      5-min Rain = 0
KMC4 100254Z 03002KT 04/02 A3039 RMK A01 T00360015  RH  087%=      5-min Rain = 0
KMC4 100255Z 03002KT 04/02 A3039 RMK A01 T00350015  RH  087%=      5-min Rain = 0
KMC4 100256Z 03002KT 04/02 A3039 RMK A01 T00350015  RH  087%=      5-min Rain = 0
KMC4 100257Z 03001KT 04/02 A3039 RMK A01 T00350015  RH  087%=      5-min Rain = 0
KMC4 100258Z 03000KT 04/02 A3039 RMK A01 T00350015  RH  087%=      5-min Rain = 0
KMC4 100259Z 00000KT 03/01 A3039 RMK A01 T00340014  RH  087%=      5-min Rain = 0
KMC4 100300Z 00000KT 03/01 A3039 RMK A01 T00340014  RH  087%=      5-min Rain = 0
KMC4 100301Z 00000KT 03/01 A3039 RMK A01 T00340014  RH  087%=      5-min Rain = 0
KMC4 100302Z 00000KT 03/01 A3039 RMK A01 T00330013  RH  087%=      5-min Rain = 0
KMC4 100303Z 00000KT 03/01 A3039 RMK A01 T00330013  RH  087%=      5-min Rain = 0
KMC4 100304Z 00000KT 03/01 A3039 RMK A01 T00330013  RH  087%=      5-min Rain = 0
KMC4 100305Z 00000KT 03/01 A3039 RMK A01 T00330014  RH  087%=      5-min Rain = 0
KMC4 100306Z 00000KT 03/01 A3039 RMK A01 T00320014  RH  088%=      5-min Rain = 0
KMC4 100307Z 00000KT 03/01 A3039 RMK A01 T00320014  RH  088%=      5-min Rain = 0
KMC4 100308Z 08000KT 03/02 A3039 RMK A01 T00320015  RH  089%=      5-min Rain = 0
KMC4 100309Z 08000KT 03/02 A3039 RMK A01 T00320016  RH  089%=      5-min Rain = 0
KMC4 100310Z 00000KT 03/02 A3039 RMK A01 T00320016  RH  089%=      5-min Rain = 0
KMC4 100311Z 08000KT 03/02 A3039 RMK A01 T00310015  RH  089%=      5-min Rain = 0
KMC4 100312Z 08001KT 03/02 A3039 RMK A01 T00310015  RH  089%=      5-min Rain = 0
KMC4 100313Z 08001KT 03/02 A3039 RMK A01 T00310015  RH  089%=      5-min Rain = 0
KMC4 100314Z 08001KT 03/02 A3039 RMK A01 T00310015  RH  089%=      5-min Rain = 0
KMC4 100315Z 08001KT 03/02 A304 RMK A01 T00310015  RH  089%=      5-min Rain = 0
KMC4 100316Z 08001KT 03/02 A304 RMK A01 T00320015  RH  089%=      5-min Rain = 0
KMC4 100317Z 08001KT 03/02 A304 RMK A01 T00320016  RH  089%=      5-min Rain = 0
KMC4 100318Z 08001KT 03/02 A304 RMK A01 T00320015  RH  089%=      5-min Rain = 0
KMC4 100319Z 09002KT 03/02 A304 RMK A01 T00320015  RH  089%=      5-min Rain = 0
KMC4 100320Z 09002KT 03/02 A304 RMK A01 T00310015  RH  089%=      5-min Rain = 0
KMC4 100321Z 08002KT 03/01 A304 RMK A01 T00310014  RH  089%=      5-min Rain = 0
KMC4 100322Z 08002KT 03/01 A304 RMK A01 T00310014  RH  089%=      5-min Rain = 0
KMC4 100323Z 08002KT 03/01 A304 RMK A01 T00310014  RH  089%=      5-min Rain = 0
KMC4 100324Z 07002KT 03/01 A304 RMK A01 T00310014  RH  089%=      5-min Rain = 0
KMC4 100325Z 07002KT 03/01 A304 RMK A01 T00300014  RH  089%=      5-min Rain = 0
KMC4 100326Z 07002KT 03/01 A304 RMK A01 T00300014  RH  089%=      5-min Rain = 0
KMC4 100327Z 07002KT 03/01 A304 RMK A01 T00300014  RH  089%=      5-min Rain = 0
KMC4 100328Z 07002KT 03/01 A304 RMK A01 T00300014  RH  089%=      5-min Rain = 0
KMC4 100329Z 07002KT 03/01 A304 RMK A01 T00300014  RH  089%=      5-min Rain = 0
KMC4 100330Z 07002KT 03/01 A304 RMK A01 T00300013  RH  089%=      5-min Rain = 0
KMC4 100331Z 07001KT 03/01 A304 RMK A01 T00300013  RH  089%=      5-min Rain = 0
KMC4 100332Z 06002KT 03/01 A304 RMK A01 T00300013  RH  089%=      5-min Rain = 0
KMC4 100333Z 06002KT 03/01 A304 RMK A01 T00300012  RH  088%=      5-min Rain = 0
KMC4 100334Z 06002KT 03/01 A304 RMK A01 T00300012  RH  088%=      5-min Rain = 0
KMC4 100335Z 06002KT 03/01 A304 RMK A01 T00290012  RH  088%=      5-min Rain = 0
KMC4 100336Z 06002KT 03/01 A304 RMK A01 T00290012  RH  088%=      5-min Rain = 0
KMC4 100337Z 06002KT 03/01 A304 RMK A01 T00280011  RH  089%=      5-min Rain = 0
KMC4 100338Z 07002KT 03/01 A304 RMK A01 T00280011  RH  089%=      5-min Rain = 0
KMC4 100339Z 08002KT 03/01 A304 RMK A01 T00280012  RH  089%=      5-min Rain = 0
KMC4 100340Z 08002KT 03/01 A304 RMK A01 T00270012  RH  090%=      5-min Rain = 0
KMC4 100341Z 09002KT 03/01 A304 RMK A01 T00270012  RH  090%=      5-min Rain = 0
KMC4 100342Z 09002KT 03/01 A304 RMK A01 T00270013  RH  090%=      5-min Rain = 0
KMC4 100343Z 09002KT 03/01 A304 RMK A01 T00260012  RH  090%=      5-min Rain = 0
KMC4 100344Z 10001KT 03/01 A304 RMK A01 T00260012  RH  091%=      5-min Rain = 0
KMC4 100345Z 10001KT 03/01 A304 RMK A01 T00260012  RH  091%=      5-min Rain = 0
KMC4 100346Z 10002KT 03/01 A304 RMK A01 T00250012  RH  091%=      5-min Rain = 0
KMC4 100347Z 10002KT 03/01 A304 RMK A01 T00250012  RH  091%=      5-min Rain = 0
KMC4 100348Z 09002KT 03/01 A304 RMK A01 T00250012  RH  091%=      5-min Rain = 0
KMC4 100349Z 08002KT 02/01 A304 RMK A01 T00240011  RH  091%=      5-min Rain = 0
KMC4 100350Z 08002KT 02/01 A304 RMK A01 T00240011  RH  091%=      5-min Rain = 0
KMC4 100351Z 07002KT 02/01 A304 RMK A01 T00240012  RH  092%=      5-min Rain = 0
KMC4 100352Z 07002KT 02/01 A304 RMK A01 T00240012  RH  092%=      5-min Rain = 0
KMC4 100353Z 07002KT 02/01 A304 RMK A01 T00230011  RH  092%=      5-min Rain = 0
KMC4 100354Z 07002KT 02/01 A304 RMK A01 T00230011  RH  092%=      5-min Rain = 0
KMC4 100355Z 07002KT 02/01 A304 RMK A01 T00220010  RH  092%=      5-min Rain = 0
KMC4 100356Z 06002KT 02/01 A304 RMK A01 T00220011  RH  092%=      5-min Rain = 0
KMC4 100357Z 06003KT 02/01 A304 RMK A01 T00220012  RH  093%=      5-min Rain = 0
KMC4 100358Z 06003KT 02/01 A304 RMK A01 T00230012  RH  093%=      5-min Rain = 0
KMC4 100359Z 07003KT 02/01 A304 RMK A01 T00230013  RH  093%=      5-min Rain = 0
KMC4 100400Z 07003KT 02/01 A304 RMK A01 T00230014  RH  093%=      5-min Rain = 0
KMC4 100401Z 07003KT 02/01 A304 RMK A01 T00240014  RH  093%=      5-min Rain = 0
KMC4 100402Z 07003KT 03/02 A304 RMK A01 T00250015  RH  093%=      5-min Rain = 0
KMC4 100403Z 07003KT 03/02 A304 RMK A01 T00260016  RH  093%=      5-min Rain = 0
KMC4 100404Z 07003KT 03/02 A304 RMK A01 T00270016  RH  093%=      5-min Rain = 0
KMC4 100405Z 07003KT 03/02 A304 RMK A01 T00280017  RH  092%=      5-min Rain = 0
KMC4 100406Z 07003KT 03/02 A304 RMK A01 T00300017  RH  091%=      5-min Rain = 0
KMC4 100407Z 07003KT 03/02 A304 RMK A01 T00310016  RH  090%=      5-min Rain = 0
KMC4 100408Z 06003KT 03/02 A304 RMK A01 T00320015  RH  089%=      5-min Rain = 0
KMC4 100409Z 07003KT 03/02 A304 RMK A01 T00330015  RH  088%=      5-min Rain = 0
KMC4 100410Z 06003KT 03/02 A304 RMK A01 T00340015  RH  088%=      5-min Rain = 0
KMC4 100411Z 06003KT 03/02 A304 RMK A01 T00340015  RH  087%=      5-min Rain = 0
KMC4 100412Z 06003KT 03/01 A304 RMK A01 T00340014  RH  087%=      5-min Rain = 0
KMC4 100413Z 06003KT 04/01 A304 RMK A01 T00350014  RH  086%=      5-min Rain = 0
KMC4 100414Z 07003KT 04/01 A304 RMK A01 T00350013  RH  086%=      5-min Rain = 0
KMC4 100415Z 07003KT 04/01 A304 RMK A01 T00350013  RH  086%=      5-min Rain = 0
KMC4 100416Z 07003KT 04/01 A304 RMK A01 T00350013  RH  086%=      5-min Rain = 0
KMC4 100417Z 07003KT 04/01 A304 RMK A01 T00350014  RH  086%=      5-min Rain = 0
KMC4 100418Z 07003KT 04/01 A304 RMK A01 T00360013  RH  085%=      5-min Rain = 0
KMC4 100419Z 07003KT 04/01 A3041 RMK A01 T00360012  RH  085%=      5-min Rain = 0
KMC4 100420Z 07003KT 04/01 A3041 RMK A01 T00350012  RH  085%=      5-min Rain = 0
KMC4 100421Z 07003KT 04/01 A3041 RMK A01 T00350012  RH  085%=      5-min Rain = 0
KMC4 100422Z 07003KT 04/01 A3041 RMK A01 T00350012  RH  085%=      5-min Rain = 0
KMC4 100423Z 07004KT 04/01 A3041 RMK A01 T00350013  RH  086%=      5-min Rain = 0
KMC4 100424Z 07004KT 04/01 A3041 RMK A01 T00350013  RH  085%=      5-min Rain = 0
KMC4 100425Z 07004KT 04/01 A3041 RMK A01 T00350013  RH  085%=      5-min Rain = 0
KMC4 100426Z 07004KT 04/01 A3041 RMK A01 T00360013  RH  085%=      5-min Rain = 0
KMC4 100427Z 07003KT 04/01 A3041 RMK A01 T00360012  RH  085%=      5-min Rain = 0
KMC4 100428Z 07003KT 04/01 A3041 RMK A01 T00360012  RH  084%=      5-min Rain = 0
KMC4 100429Z 08003KT 04/01 A3041 RMK A01 T00360012  RH  084%=      5-min Rain = 0
KMC4 100430Z 08003KT 04/01 A3041 RMK A01 T00360012  RH  084%=      5-min Rain = 0
KMC4 100431Z 08003KT 04/01 A3041 RMK A01 T00360012  RH  085%=      5-min Rain = 0
KMC4 100432Z 08003KT 04/01 A3041 RMK A01 T00360012  RH  084%=      5-min Rain = 0
KMC4 100433Z 07003KT 04/01 A3041 RMK A01 T00360012  RH  084%=      5-min Rain = 0
KMC4 100434Z 07002KT 04/01 A3041 RMK A01 T00360011  RH  084%=      5-min Rain = 0
KMC4 100435Z 07002KT 04/01 A3041 RMK A01 T00350011  RH  084%=      5-min Rain = 0
KMC4 100436Z 07002KT 03/01 A3041 RMK A01 T00340010  RH  084%=      5-min Rain = 0
KMC4 100437Z 07002KT 03/01 A3041 RMK A01 T00330009  RH  084%=      5-min Rain = 0
KMC4 100438Z 06002KT 03/01 A3041 RMK A01 T00320009  RH  085%=      5-min Rain = 0
KMC4 100439Z 07002KT 03/01 A3041 RMK A01 T00310009  RH  086%=      5-min Rain = 0
KMC4 100440Z 07002KT 03/01 A3041 RMK A01 T00300009  RH  086%=      5-min Rain = 0
KMC4 100441Z 07002KT 03/01 A3041 RMK A01 T00300009  RH  087%=      5-min Rain = 0
KMC4 100442Z 07002KT 03/01 A3041 RMK A01 T00290010  RH  087%=      5-min Rain = 0
KMC4 100443Z 07002KT 03/01 A3041 RMK A01 T00290010  RH  087%=      5-min Rain = 0
KMC4 100444Z 07002KT 03/01 A3041 RMK A01 T00290010  RH  088%=      5-min Rain = 0
KMC4 100445Z 07003KT 03/01 A3041 RMK A01 T00290011  RH  088%=      5-min Rain = 0
KMC4 100446Z 07003KT 03/01 A3041 RMK A01 T00290010  RH  088%=      5-min Rain = 0
KMC4 100447Z 07003KT 03/01 A3041 RMK A01 T00290010  RH  088%=      5-min Rain = 0
KMC4 100448Z 07003KT 03/01 A3041 RMK A01 T00280010  RH  088%=      5-min Rain = 0
KMC4 100449Z 06003KT 03/01 A3041 RMK A01 T00290010  RH  088%=      5-min Rain = 0
KMC4 100450Z 06003KT 03/01 A3041 RMK A01 T00300011  RH  087%=      5-min Rain = 0
KMC4 100451Z 06003KT 03/01 A3041 RMK A01 T00300010  RH  087%=      5-min Rain = 0
KMC4 100452Z 06003KT 03/01 A3041 RMK A01 T00310010  RH  086%=      5-min Rain = 0
KMC4 100453Z 07003KT 03/01 A3041 RMK A01 T00310010  RH  086%=      5-min Rain = 0
KMC4 100454Z 07003KT 03/01 A3041 RMK A01 T00310010  RH  086%=      5-min Rain = 0
KMC4 100455Z 07003KT 03/01 A3041 RMK A01 T00300010  RH  087%=      5-min Rain = 0
KMC4 100456Z 08003KT 03/01 A3041 RMK A01 T00300010  RH  087%=      5-min Rain = 0
KMC4 100457Z 09003KT 03/01 A3041 RMK A01 T00300010  RH  087%=      5-min Rain = 0
KMC4 100458Z 11002KT 03/01 A3041 RMK A01 T00300010  RH  087%=      5-min Rain = 0
KMC4 100459Z 11002KT 03/01 A3041 RMK A01 T00290009  RH  087%=      5-min Rain = 0
KMC4 100500Z 11001KT 03/01 A3041 RMK A01 T00270006  RH  086%=      5-min Rain = 0
KMC4 100501Z 11001KT 03/01 A3041 RMK A01 T00250005  RH  087%=      5-min Rain = 0
KMC4 100502Z 10001KT 02/01 A3041 RMK A01 T00240005  RH  087%=      5-min Rain = 0
KMC4 100503Z 10002KT 02/01 A3041 RMK A01 T00230005  RH  088%=      5-min Rain = 0
KMC4 100504Z 09002KT 02/01 A3041 RMK A01 T00230005  RH  088%=      5-min Rain = 0
KMC4 100505Z 09001KT 02/01 A3041 RMK A01 T00230006  RH  088%=      5-min Rain = 0
KMC4 100506Z 09001KT 02/01 A3041 RMK A01 T00220006  RH  089%=      5-min Rain = 0
KMC4 100507Z 09002KT 02/01 A3041 RMK A01 T00220005  RH  089%=      5-min Rain = 0
KMC4 100508Z 09001KT 02/01 A3041 RMK A01 T00210005  RH  089%=      5-min Rain = 0
KMC4 100509Z 09001KT 02/01 A3041 RMK A01 T00210005  RH  089%=      5-min Rain = 0
KMC4 100510Z 10001KT 02/01 A3041 RMK A01 T00210006  RH  090%=      5-min Rain = 0
KMC4 100511Z 11001KT 02/01 A3041 RMK A01 T00210006  RH  090%=      5-min Rain = 0
KMC4 100512Z 10002KT 02/01 A3041 RMK A01 T00210005  RH  090%=      5-min Rain = 0
KMC4 100513Z 09002KT 02/01 A3041 RMK A01 T00200005  RH  090%=      5-min Rain = 0
KMC4 100514Z 09002KT 02/01 A3041 RMK A01 T00200005  RH  090%=      5-min Rain = 0
KMC4 100515Z 09002KT 02/01 A3041 RMK A01 T00200005  RH  090%=      5-min Rain = 0
KMC4 100516Z 09002KT 02/01 A3041 RMK A01 T00190005  RH  090%=      5-min Rain = 0
KMC4 100517Z 09002KT 02/01 A3041 RMK A01 T00190005  RH  090%=      5-min Rain = 0
KMC4 100518Z 09002KT 02/01 A3041 RMK A01 T00190005  RH  090%=      5-min Rain = 0
KMC4 100519Z 09002KT 02/01 A3041 RMK A01 T00190005  RH  090%=      5-min Rain = 0
KMC4 100520Z 09002KT 02/01 A3041 RMK A01 T00190006  RH  091%=      5-min Rain = 0
KMC4 100521Z 08002KT 02/01 A3041 RMK A01 T00200006  RH  091%=      5-min Rain = 0
KMC4 100522Z 09002KT 02/01 A3041 RMK A01 T00200006  RH  091%=      5-min Rain = 0
KMC4 100523Z 09002KT 02/01 A3041 RMK A01 T00200006  RH  091%=      5-min Rain = 0
KMC4 100524Z 10003KT 02/01 A3041 RMK A01 T00200007  RH  091%=      5-min Rain = 0
KMC4 100525Z 10003KT 02/01 A3041 RMK A01 T00210007  RH  091%=      5-min Rain = 0
KMC4 100526Z 10002KT 02/01 A3041 RMK A01 T00210008  RH  091%=      5-min Rain = 0
KMC4 100527Z 10002KT 02/01 A3041 RMK A01 T00210007  RH  090%=      5-min Rain = 0
KMC4 100528Z 10001KT 02/01 A304 RMK A01 T00210007  RH  090%=      5-min Rain = 0
KMC4 100529Z 10001KT 02/01 A304 RMK A01 T00210006  RH  090%=      5-min Rain = 0
KMC4 100530Z 10001KT 02/01 A304 RMK A01 T00200005  RH  090%=      5-min Rain = 0
KMC4 100531Z 10001KT 02/00 A304 RMK A01 T00180003  RH  090%=      5-min Rain = 0
KMC4 100532Z 11001KT 02/00 A304 RMK A01 T00170003  RH  090%=      5-min Rain = 0
KMC4 100533Z 13001KT 02/00 A304 RMK A01 T00170003  RH  091%=      5-min Rain = 0
KMC4 100534Z 17002KT 02/00 A304 RMK A01 T00160003  RH  091%=      5-min Rain = 0
KMC4 100535Z 17002KT 01/00 A304 RMK A01 T00140001  RH  091%=      5-min Rain = 0
KMC4 100536Z 17003KT 01/00 A304 RMK A01 T001300-0  RH  091%=      5-min Rain = 0
KMC4 100537Z 17003KT 01/M00 A304 RMK A01 T00111001  RH  091%=      5-min Rain = 0
KMC4 100538Z 16003KT 01/M00 A3041 RMK A01 T00101002  RH  092%=      5-min Rain = 0
KMC4 100539Z 15002KT 01/M00 A3041 RMK A01 T00091002  RH  092%=      5-min Rain = 0
KMC4 100540Z 13001KT 01/M00 A3041 RMK A01 T00091003  RH  092%=      5-min Rain = 0
KMC4 100541Z 12001KT 01/M00 A3041 RMK A01 T00081003  RH  092%=      5-min Rain = 0
KMC4 100542Z 11001KT 01/M00 A3041 RMK A01 T00081002  RH  093%=      5-min Rain = 0
KMC4 100543Z 10001KT 01/M00 A3041 RMK A01 T00081002  RH  093%=      5-min Rain = 0
KMC4 100544Z 08001KT 01/M00 A3041 RMK A01 T00081001  RH  094%=      5-min Rain = 0
KMC4 100545Z 06002KT 01/00 A3041 RMK A01 T00090000  RH  094%=      5-min Rain = 0
KMC4 100546Z 07002KT 01/00 A3041 RMK A01 T00100002  RH  094%=      5-min Rain = 0
KMC4 100547Z 07003KT 01/00 A3041 RMK A01 T00110003  RH  094%=      5-min Rain = 0
KMC4 100548Z 07003KT 01/00 A3041 RMK A01 T00120004  RH  095%=      5-min Rain = 0
KMC4 100549Z 07003KT 01/01 A3041 RMK A01 T00130005  RH  094%=      5-min Rain = 0
KMC4 100550Z 07003KT 01/00 A3041 RMK A01 T00130004  RH  094%=      5-min Rain = 0
KMC4 100551Z 06003KT 01/00 A3041 RMK A01 T00130004  RH  094%=      5-min Rain = 0
KMC4 100552Z 07003KT 01/00 A3041 RMK A01 T00130003  RH  094%=      5-min Rain = 0
KMC4 100553Z 07003KT 01/00 A3041 RMK A01 T00130004  RH  094%=      5-min Rain = 0
KMC4 100554Z 07003KT 01/00 A3041 RMK A01 T00130004  RH  094%=      5-min Rain = 0
KMC4 100555Z 07003KT 01/00 A3041 RMK A01 T00140004  RH  093%=      5-min Rain = 0
KMC4 100556Z 07002KT 01/00 A3041 RMK A01 T00140004  RH  093%=      5-min Rain = 0
KMC4 100557Z 06002KT 01/00 A3041 RMK A01 T00140004  RH  093%=      5-min Rain = 0
KMC4 100558Z 06002KT 01/00 A3041 RMK A01 T00140004  RH  093%=      5-min Rain = 0
KMC4 100559Z 05003KT 02/01 A3041 RMK A01 T00150005  RH  093%=      5-min Rain = 0

Page generated in 0.1492 seconds.